| time (UTC) | temp F | wind direction | speed knots | gust knots | rain 1hr in | rain 24hr in | rain mn in | humidity % | barometer mb |
| 20260504214219 | 57 | 13 | 9.6 | 21.7 | 0.00 | 0.00 | 0.00 | 47 | 1002.2 |
| 20260504214123 | 56 | 38 | 11.3 | 21.7 | 0.00 | 0.00 | 0.00 | 46 | 1002.2 |
| 20260504214027 | 56 | 327 | 14.8 | 22.6 | 0.00 | 0.00 | 0.00 | 46 | 1002.2 |
| 20260504213910 | 56 | 35 | 13.9 | 22.6 | 0.00 | 0.00 | 0.00 | 45 | 1002.1 |
| 20260504213819 | 56 | 5 | 10.4 | 22.6 | 0.00 | 0.00 | 0.00 | 46 | 1002.1 |
| 20260504213723 | 56 | 24 | 9.6 | 22.6 | 0.00 | 0.00 | 0.00 | 46 | 1002.1 |
| 20260504213608 | 56 | 12 | 10.4 | 22.6 | 0.00 | 0.00 | 0.00 | 46 | 1002.1 |
| 20260504213513 | 56 | 13 | 11.3 | 22.6 | 0.00 | 0.00 | 0.00 | 44 | 1002.2 |
| 20260504213417 | 56 | 355 | 14.8 | 22.6 | 0.00 | 0.00 | 0.00 | 44 | 1002.2 |
| 20260504213322 | 56 | 9 | 14.8 | 22.6 | 0.00 | 0.00 | 0.00 | 44 | 1002.1 |
| 20260504213209 | 56 | 344 | 13.9 | 22.6 | 0.00 | 0.00 | 0.00 | 44 | 1002.1 |
| 20260504213113 | 56 | 338 | 14.8 | 21.7 | 0.00 | 0.00 | 0.00 | 45 | 1002.1 |
| 20260504213037 | 56 | 5 | 15.6 | 21.7 | 0.00 | 0.00 | 0.00 | 45 | 1002.0 |
| 20260504212920 | 56 | 351 | 13.0 | 19.1 | 0.00 | 0.00 | 0.00 | 47 | 1002.0 |
| 20260504212844 | 56 | 355 | 11.3 | 20.0 | 0.00 | 0.00 | 0.00 | 46 | 1002.0 |
| 20260504212728 | 56 | 38 | 11.3 | 20.0 | 0.00 | 0.00 | 0.00 | 47 | 1002.0 |
| 20260504212606 | 55 | 347 | 13.0 | 20.0 | 0.00 | 0.00 | 0.00 | 46 | 1002.0 |
| 20260504212514 | 55 | 19 | 13.0 | 20.0 | 0.00 | 0.00 | 0.00 | 47 | 1002.1 |
| 20260504212439 | 55 | 34 | 11.3 | 21.7 | 0.00 | 0.00 | 0.00 | 46 | 1002.0 |
| 20260504212323 | 55 | 9 | 11.3 | 21.7 | 0.00 | 0.00 | 0.00 | 46 | 1002.0 |
| 20260504212226 | 56 | 346 | 13.0 | 21.7 | 0.00 | 0.00 | 0.00 | 46 | 1002.0 |
| 20260504212110 | 56 | 355 | 13.0 | 21.7 | 0.00 | 0.00 | 0.00 | 46 | 1002.0 |
| 20260504212015 | 56 | 355 | 12.2 | 21.7 | 0.00 | 0.00 | 0.00 | 47 | 1002.0 |
| 20260504211918 | 56 | 360 | 10.4 | 21.7 | 0.00 | 0.00 | 0.00 | 48 | 1002.0 |
| 20260504211827 | 56 | 26 | 12.2 | 21.7 | 0.00 | 0.00 | 0.00 | 46 | 1001.9 |
| 20260504211751 | 56 | 15 | 13.0 | 21.7 | 0.00 | 0.00 | 0.00 | 46 | 1002.0 |
| 20260504211607 | 56 | 346 | 12.2 | 21.7 | 0.00 | 0.00 | 0.00 | 47 | 1002.1 |
| 20260504211511 | 56 | 360 | 10.4 | 19.1 | 0.00 | 0.00 | 0.00 | 46 | 1001.9 |
| 20260504211414 | 56 | 360 | 11.3 | 19.1 | 0.00 | 0.00 | 0.00 | 48 | 1002.0 |
| 20260504211319 | 56 | 329 | 13.0 | 19.1 | 0.00 | 0.00 | 0.00 | 47 | 1002.0 |
| 20260504211206 | 56 | 315 | 10.4 | 19.1 | 0.00 | 0.00 | 0.00 | 49 | 1001.8 |
| 20260504211131 | 56 | 355 | 7.8 | 18.2 | 0.00 | 0.00 | 0.00 | 49 | 1001.9 |
| 20260504211007 | 56 | 350 | 7.8 | 19.1 | 0.00 | 0.00 | 0.00 | 48 | 1002.0 |
| 20260504210910 | 56 | 355 | 7.0 | 19.1 | 0.00 | 0.00 | 0.00 | 49 | 1001.9 |
| 20260504210814 | 56 | 346 | 6.1 | 19.1 | 0.00 | 0.00 | 0.00 | 51 | 1002.0 |
| 20260504210719 | 56 | 340 | 8.7 | 19.1 | 0.00 | 0.00 | 0.00 | 48 | 1002.0 |
| 20260504210626 | 56 | 343 | 10.4 | 19.1 | 0.00 | 0.00 | 0.00 | 47 | 1002.0 |
| 20260504210551 | 56 | 349 | 12.2 | 19.1 | 0.00 | 0.00 | 0.00 | 48 | 1001.9 |
| 20260504210406 | 56 | 309 | 12.2 | 19.1 | 0.00 | 0.00 | 0.00 | 47 | 1001.9 |
| 20260504210329 | 56 | 355 | 11.3 | 19.1 | 0.00 | 0.00 | 0.00 | 48 | 1001.9 |
| 20260504210212 | 56 | 5 | 12.2 | 19.1 | 0.00 | 0.00 | 0.00 | 48 | 1001.9 |
| 20260504210116 | 56 | 5 | 11.3 | 16.5 | 0.00 | 0.00 | 0.00 | 48 | 1001.8 |
| 20260504210020 | 56 | 25 | 10.4 | 16.5 | 0.00 | 0.00 | 0.00 | 48 | 1001.8 |
| 20260504205928 | 56 | 9 | 8.7 | 16.5 | 0.00 | 0.00 | 0.00 | 48 | 1001.8 |
| 20260504205851 | 56 | 355 | 9.6 | 19.1 | 0.00 | 0.00 | 0.00 | 48 | 1001.8 |
| 20260504205707 | 56 | 5 | 8.7 | 19.1 | 0.00 | 0.00 | 0.00 | 46 | 1001.9 |
| 20260504205610 | 56 | 336 | 7.0 | 19.1 | 0.00 | 0.00 | 0.00 | 46 | 1001.8 |
| 20260504205513 | 56 | 35 | 9.6 | 19.1 | 0.00 | 0.00 | 0.00 | 46 | 1001.8 |
| 20260504205416 | 57 | 360 | 11.3 | 20.0 | 0.00 | 0.00 | 0.00 | 46 | 1001.7 |
| 20260504205319 | 57 | 347 | 10.4 | 20.0 | 0.00 | 0.00 | 0.00 | 45 | 1001.8 |
| 20260504205206 | 57 | 304 | 11.3 | 20.0 | 0.00 | 0.00 | 0.00 | 46 | 1001.7 |
| 20260504205129 | 57 | 340 | 13.0 | 20.0 | 0.00 | 0.00 | 0.00 | 45 | 1001.8 |
| 20260504205011 | 57 | 19 | 13.9 | 20.0 | 0.00 | 0.00 | 0.00 | 46 | 1001.7 |
| 20260504204914 | 58 | 343 | 12.2 | 20.0 | 0.00 | 0.00 | 0.00 | 46 | 1001.7 |
| 20260504204818 | 58 | 315 | 12.2 | 20.0 | 0.00 | 0.00 | 0.00 | 46 | 1001.6 |
| 20260504204720 | 58 | 332 | 13.9 | 20.0 | 0.00 | 0.00 | 0.00 | 46 | 1001.7 |
| 20260504204608 | 58 | 360 | 12.2 | 20.0 | 0.00 | 0.00 | 0.00 | 45 | 1001.6 |
| 20260504204531 | 58 | 42 | 10.4 | 16.5 | 0.00 | 0.00 | 0.00 | 46 | 1001.6 |
| 20260504204434 | 59 | 360 | 9.6 | 16.5 | 0.00 | 0.00 | 0.00 | 46 | 1001.5 |
| 20260504204315 | 59 | 65 | 9.6 | 16.5 | 0.00 | 0.00 | 0.00 | 47 | 1001.6 |
| 20260504204218 | 59 | 9 | 10.4 | 16.5 | 0.00 | 0.00 | 0.00 | 46 | 1001.6 |
| 20260504204121 | 59 | 360 | 10.4 | 19.1 | 0.00 | 0.00 | 0.00 | 46 | 1001.6 |
| 20260504204022 | 59 | 9 | 10.4 | 20.0 | 0.00 | 0.00 | 0.00 | 45 | 1001.6 |
| 20260504203931 | 59 | 19 | 10.4 | 20.0 | 0.00 | 0.00 | 0.00 | 46 | 1001.6 |
| 20260504203806 | 59 | 325 | 9.6 | 20.0 | 0.00 | 0.00 | 0.00 | 48 | 1001.7 |
| 20260504203709 | 58 | 287 | 8.7 | 20.0 | 0.00 | 0.00 | 0.00 | 47 | 1001.6 |
| 20260504203611 | 58 | 337 | 10.4 | 20.0 | 0.00 | 0.00 | 0.00 | 47 | 1001.6 |
| 20260504203515 | 58 | 360 | 12.2 | 20.0 | 0.00 | 0.00 | 0.00 | 46 | 1001.6 |
| 20260504203417 | 58 | 5 | 13.0 | 20.0 | 0.00 | 0.00 | 0.00 | 46 | 1001.6 |
| 20260504203306 | 58 | 360 | 13.9 | 20.0 | 0.00 | 0.00 | 0.00 | 47 | 1001.5 |
| 20260504203207 | 58 | 13 | 11.3 | 20.0 | 0.00 | 0.00 | 0.00 | 48 | 1001.5 |
| 20260504203131 | 58 | 360 | 10.4 | 20.0 | 0.00 | 0.00 | 0.00 | 48 | 1001.5 |
| 20260504203014 | 58 | 5 | 10.4 | 20.0 | 0.00 | 0.00 | 0.00 | 47 | 1001.5 |
| 20260504202917 | 58 | 346 | 10.4 | 20.0 | 0.00 | 0.00 | 0.00 | 47 | 1001.5 |
| 20260504202820 | 58 | 5 | 10.4 | 20.0 | 0.00 | 0.00 | 0.00 | 47 | 1001.5 |
| 20260504202708 | 57 | 30 | 11.3 | 20.0 | 0.00 | 0.00 | 0.00 | 48 | 1001.5 |
| 20260504202610 | 57 | 11 | 11.3 | 20.0 | 0.00 | 0.00 | 0.00 | 50 | 1001.5 |
| 20260504202513 | 57 | 355 | 12.2 | 20.0 | 0.00 | 0.00 | 0.00 | 49 | 1001.5 |
| 20260504202417 | 57 | 345 | 12.2 | 20.0 | 0.00 | 0.00 | 0.00 | 48 | 1001.6 |
| 20260504202319 | 57 | 5 | 10.4 | 20.0 | 0.00 | 0.00 | 0.00 | 49 | 1001.5 |
| 20260504202243 | 56 | 31 | 9.6 | 25.2 | 0.00 | 0.00 | 0.00 | 49 | 1001.5 |
| 20260504202123 | 56 | 347 | 11.3 | 25.2 | 0.00 | 0.00 | 0.00 | 49 | 1001.5 |
| 20260504202031 | 56 | 5 | 12.2 | 25.2 | 0.00 | 0.00 | 0.00 | 47 | 1001.4 |
| 20260504201907 | 57 | 38 | 10.4 | 25.2 | 0.00 | 0.00 | 0.00 | 48 | 1001.4 |
| 20260504201810 | 57 | 36 | 10.4 | 25.2 | 0.00 | 0.00 | 0.00 | 48 | 1001.4 |
| 20260504201733 | 57 | 355 | 11.3 | 25.2 | 0.00 | 0.00 | 0.00 | 47 | 1001.4 |
| 20260504201615 | 57 | 351 | 12.2 | 25.2 | 0.00 | 0.00 | 0.00 | 48 | 1001.5 |
| 20260504201519 | 57 | 19 | 13.9 | 25.2 | 0.00 | 0.00 | 0.00 | 48 | 1001.5 |
| 20260504201406 | 57 | 5 | 12.2 | 25.2 | 0.00 | 0.00 | 0.00 | 49 | 1001.4 |
| 20260504201328 | 57 | 5 | 10.4 | 21.7 | 0.00 | 0.00 | 0.00 | 48 | 1001.5 |
| 20260504201205 | 57 | 19 | 10.4 | 21.7 | 0.00 | 0.00 | 0.00 | 48 | 1001.5 |
| 20260504201107 | 57 | 360 | 12.2 | 21.7 | 0.00 | 0.00 | 0.00 | 48 | 1001.5 |
| 20260504201012 | 57 | 22 | 11.3 | 21.7 | 0.00 | 0.00 | 0.00 | 48 | 1001.3 |
| 20260504200915 | 57 | 10 | 11.3 | 21.7 | 0.00 | 0.00 | 0.00 | 47 | 1001.4 |
| 20260504200817 | 57 | 355 | 12.2 | 21.7 | 0.00 | 0.00 | 0.00 | 47 | 1001.4 |
| 20260504200705 | 58 | 40 | 13.9 | 21.7 | 0.00 | 0.00 | 0.00 | 47 | 1001.4 |
| 20260504200629 | 58 | 36 | 15.6 | 21.7 | 0.00 | 0.00 | 0.00 | 47 | 1001.3 |
| 20260504200531 | 58 | 32 | 14.8 | 21.7 | 0.00 | 0.00 | 0.00 | 47 | 1001.3 |
| 20260504200406 | 58 | 9 | 13.0 | 21.7 | 0.00 | 0.00 | 0.00 | 47 | 1001.4 |
| 20260504200330 | 59 | 348 | 13.9 | 21.7 | 0.00 | 0.00 | 0.00 | 48 | 1001.2 |
| 20260504200212 | 59 | 15 | 13.9 | 22.6 | 0.00 | 0.00 | 0.00 | 46 | 1001.3 |
| 20260504200115 | 59 | 355 | 13.9 | 22.6 | 0.00 | 0.00 | 0.00 | 45 | 1001.2 |
| 20260504200022 | 59 | 342 | 10.4 | 22.6 | 0.00 | 0.00 | 0.00 | 45 | 1001.1 |
| 20260504195926 | 59 | 355 | 7.8 | 22.6 | 0.00 | 0.00 | 0.00 | 45 | 1001.0 |
| 20260504195808 | 60 | 355 | 10.4 | 22.6 | 0.00 | 0.00 | 0.00 | 46 | 1000.9 |
| 20260504195712 | 60 | 5 | 13.0 | 22.6 | 0.00 | 0.00 | 0.00 | 45 | 1001.0 |
| 20260504195615 | 60 | 348 | 14.8 | 22.6 | 0.00 | 0.00 | 0.00 | 43 | 1001.2 |
| 20260504195518 | 60 | 360 | 13.0 | 22.6 | 0.00 | 0.00 | 0.00 | 45 | 1001.1 |
| 20260504195406 | 60 | 355 | 9.6 | 17.4 | 0.00 | 0.00 | 0.00 | 46 | 1000.9 |
| 20260504195329 | 60 | 5 | 11.3 | 19.1 | 0.00 | 0.00 | 0.00 | 45 | 1001.0 |
| 20260504195204 | 60 | 305 | 11.3 | 21.7 | 0.00 | 0.00 | 0.00 | 47 | 1001.1 |
| 20260504195109 | 60 | 360 | 10.4 | 21.7 | 0.00 | 0.00 | 0.00 | 47 | 1001.1 |
| 20260504195011 | 60 | 5 | 10.4 | 21.7 | 0.00 | 0.00 | 0.00 | 47 | 1001.0 |
| 20260504194915 | 59 | 349 | 10.4 | 21.7 | 0.00 | 0.00 | 0.00 | 46 | 1001.1 |
| 20260504194822 | 59 | 340 | 10.4 | 21.7 | 0.00 | 0.00 | 0.00 | 46 | 1001.0 |
| 20260504194725 | 59 | 13 | 12.2 | 21.7 | 0.00 | 0.00 | 0.00 | 47 | 1000.9 |
| 20260504194608 | 59 | 341 | 13.9 | 21.7 | 0.00 | 0.00 | 0.00 | 46 | 1000.9 |
| 20260504194511 | 59 | 331 | 15.6 | 21.7 | 0.00 | 0.00 | 0.00 | 47 | 1001.0 |
| 20260504194417 | 59 | 348 | 13.9 | 21.7 | 0.00 | 0.00 | 0.00 | 46 | 1001.0 |
| 20260504194340 | 59 | 5 | 13.0 | 19.1 | 0.00 | 0.00 | 0.00 | 48 | 1000.9 |
| 20260504194223 | 59 | 355 | 13.9 | 19.1 | 0.00 | 0.00 | 0.00 | 46 | 1001.1 |
| 20260504194129 | 59 | 9 | 14.8 | 19.1 | 0.00 | 0.00 | 0.00 | 47 | 1001.0 |
| 20260504194005 | 59 | 5 | 12.2 | 19.1 | 0.00 | 0.00 | 0.00 | 47 | 1001.0 |
| 20260504193907 | 59 | 360 | 11.3 | 17.4 | 0.00 | 0.00 | 0.00 | 47 | 1000.9 |
| 20260504193812 | 59 | 14 | 9.6 | 17.4 | 0.00 | 0.00 | 0.00 | 46 | 1000.9 |
| 20260504193715 | 59 | 11 | 10.4 | 18.2 | 0.00 | 0.00 | 0.00 | 46 | 1001.0 |
| 20260504193619 | 59 | 351 | 10.4 | 18.2 | 0.00 | 0.00 | 0.00 | 45 | 1000.9 |
| 20260504193540 | 59 | 31 | 7.8 | 18.2 | 0.00 | 0.00 | 0.00 | 47 | 1001.0 |
| 20260504193428 | 59 | 321 | 6.1 | 18.2 | 0.00 | 0.00 | 0.00 | 47 | 1000.8 |
| 20260504193304 | 59 | 336 | 8.7 | 21.7 | 0.00 | 0.00 | 0.00 | 48 | 1000.7 |
| 20260504193207 | 59 | 350 | 9.6 | 21.7 | 0.00 | 0.00 | 0.00 | 47 | 1000.8 |
| 20260504193111 | 60 | 15 | 10.4 | 21.7 | 0.00 | 0.00 | 0.00 | 47 | 1000.7 |
| 20260504193037 | 60 | 37 | 11.3 | 21.7 | 0.00 | 0.00 | 0.00 | 46 | 1000.9 |
| 20260504192919 | 60 | 28 | 12.2 | 21.7 | 0.00 | 0.00 | 0.00 | 46 | 1000.8 |
| 20260504192808 | 60 | 340 | 11.3 | 21.7 | 0.00 | 0.00 | 0.00 | 48 | 1000.8 |
| 20260504192711 | 60 | 347 | 12.2 | 21.7 | 0.00 | 0.00 | 0.00 | 46 | 1000.7 |
| 20260504192617 | 60 | 320 | 11.3 | 21.7 | 0.00 | 0.00 | 0.00 | 48 | 1000.9 |
| 20260504192520 | 60 | 325 | 11.3 | 21.7 | 0.00 | 0.00 | 0.00 | 47 | 1000.9 |
| 20260504192423 | 60 | 5 | 11.3 | 19.1 | 0.00 | 0.00 | 0.00 | 45 | 1000.6 |
| 20260504192308 | 60 | 10 | 10.4 | 19.1 | 0.00 | 0.00 | 0.00 | 47 | 1000.7 |
| 20260504192217 | 60 | 5 | 9.6 | 19.1 | 0.00 | 0.00 | 0.00 | 49 | 1000.7 |
| 20260504192121 | 60 | 13 | 9.6 | 19.1 | 0.00 | 0.00 | 0.00 | 48 | 1000.6 |
| 20260504192006 | 60 | 334 | 11.3 | 19.1 | 0.00 | 0.00 | 0.00 | 47 | 1000.7 |
| 20260504191931 | 60 | 350 | 11.3 | 19.1 | 0.00 | 0.00 | 0.00 | 48 | 1000.7 |
| 20260504191813 | 60 | 345 | 12.2 | 19.1 | 0.00 | 0.00 | 0.00 | 48 | 1000.7 |
| 20260504191718 | 60 | 9 | 11.3 | 19.1 | 0.00 | 0.00 | 0.00 | 48 | 1000.6 |
| 20260504191606 | 60 | 5 | 10.4 | 20.9 | 0.00 | 0.00 | 0.00 | 48 | 1000.6 |
| 20260504191510 | 60 | 40 | 11.3 | 20.9 | 0.00 | 0.00 | 0.00 | 46 | 1000.6 |
| 20260504191415 | 60 | 360 | 11.3 | 21.7 | 0.00 | 0.00 | 0.00 | 47 | 1000.5 |
| 20260504191319 | 60 | 344 | 11.3 | 21.7 | 0.00 | 0.00 | 0.00 | 48 | 1000.6 |
| 20260504191223 | 60 | 28 | 9.6 | 21.7 | 0.00 | 0.00 | 0.00 | 48 | 1000.6 |
| 20260504191128 | 60 | 336 | 8.7 | 21.7 | 0.00 | 0.00 | 0.00 | 48 | 1000.5 |
| 20260504191016 | 60 | 311 | 11.3 | 21.7 | 0.00 | 0.00 | 0.00 | 49 | 1000.6 |
| 20260504190920 | 60 | 9 | 11.3 | 21.7 | 0.00 | 0.00 | 0.00 | 48 | 1000.5 |
| 20260504190822 | 60 | 355 | 12.2 | 21.7 | 0.00 | 0.00 | 0.00 | 49 | 1000.5 |
| 20260504190708 | 60 | 348 | 14.8 | 21.7 | 0.00 | 0.00 | 0.00 | 48 | 1000.5 |
| 20260504190611 | 60 | 360 | 13.9 | 21.7 | 0.00 | 0.00 | 0.00 | 47 | 1000.5 |
| 20260504190515 | 60 | 342 | 11.3 | 20.0 | 0.00 | 0.00 | 0.00 | 48 | 1000.4 |
| 20260504190420 | 60 | 355 | 10.4 | 20.9 | 0.00 | 0.00 | 0.00 | 47 | 1000.4 |
| 20260504190328 | 60 | 15 | 12.2 | 20.9 | 0.00 | 0.00 | 0.00 | 48 | 1000.4 |
| 20260504190205 | 60 | 327 | 11.3 | 21.7 | 0.00 | 0.00 | 0.00 | 49 | 1000.4 |
| 20260504190109 | 60 | 13 | 10.4 | 21.7 | 0.00 | 0.00 | 0.00 | 52 | 1000.2 |
| 20260504190034 | 60 | 351 | 10.4 | 21.7 | 0.00 | 0.00 | 0.00 | 49 | 1000.2 |
| 20260504185918 | 60 | 52 | 12.2 | 21.7 | 0.00 | 0.00 | 0.00 | 50 | 1000.2 |
| 20260504185821 | 60 | 351 | 13.0 | 21.7 | 0.00 | 0.00 | 0.00 | 49 | 1000.5 |
| 20260504185711 | 60 | 360 | 13.9 | 21.7 | 0.00 | 0.00 | 0.00 | 48 | 1000.3 |
| 20260504185615 | 60 | 29 | 14.8 | 21.7 | 0.00 | 0.00 | 0.00 | 48 | 1000.3 |
| 20260504185539 | 60 | 11 | 13.0 | 21.7 | 0.00 | 0.00 | 0.00 | 48 | 1000.2 |
| 20260504185423 | 60 | 319 | 11.3 | 21.7 | 0.00 | 0.00 | 0.00 | 48 | 1000.1 |
| 20260504185309 | 60 | 20 | 9.6 | 21.7 | 0.00 | 0.00 | 0.00 | 49 | 1000.1 |
| 20260504185212 | 60 | 28 | 9.6 | 21.7 | 0.00 | 0.00 | 0.00 | 49 | 1000.1 |
| 20260504185120 | 60 | 360 | 10.4 | 22.6 | 0.00 | 0.00 | 0.00 | 48 | 1000.3 |
| 20260504185024 | 60 | 49 | 11.3 | 24.3 | 0.00 | 0.00 | 0.00 | 49 | 1000.2 |
| 20260504184927 | 60 | 12 | 12.2 | 24.3 | 0.00 | 0.00 | 0.00 | 49 | 1000.1 |
| 20260504184805 | 60 | 11 | 11.3 | 24.3 | 0.00 | 0.00 | 0.00 | 49 | 1000.1 |
| 20260504184708 | 60 | 5 | 10.4 | 24.3 | 0.00 | 0.00 | 0.00 | 48 | 1000.2 |
| 20260504184614 | 61 | 36 | 10.4 | 24.3 | 0.00 | 0.00 | 0.00 | 49 | 1000.2 |
| 20260504184522 | 60 | 5 | 10.4 | 24.3 | 0.00 | 0.00 | 0.00 | 49 | 1000.2 |
| 20260504184406 | 60 | 19 | 13.0 | 24.3 | 0.00 | 0.00 | 0.00 | 48 | 1000.2 |
| 20260504184309 | 60 | 313 | 13.9 | 24.3 | 0.00 | 0.00 | 0.00 | 47 | 1000.1 |
| 20260504184214 | 60 | 329 | 12.2 | 24.3 | 0.00 | 0.00 | 0.00 | 50 | 999.9 |
| 20260504184139 | 60 | 29 | 11.3 | 17.4 | 0.00 | 0.00 | 0.00 | 48 | 1000.0 |
| 20260504184023 | 60 | 329 | 11.3 | 17.4 | 0.00 | 0.00 | 0.00 | 48 | 1000.0 |
| 20260504183912 | 60 | 360 | 10.4 | 17.4 | 0.00 | 0.00 | 0.00 | 47 | 1000.0 |
| 20260504183816 | 60 | 9 | 11.3 | 17.4 | 0.00 | 0.00 | 0.00 | 48 | 999.9 |
| 20260504183721 | 60 | 351 | 10.4 | 17.4 | 0.00 | 0.00 | 0.00 | 48 | 1000.0 |
| 20260504183645 | 60 | 346 | 10.4 | 20.9 | 0.00 | 0.00 | 0.00 | 48 | 1000.0 |
| 20260504183549 | 60 | 346 | 11.3 | 20.9 | 0.00 | 0.00 | 0.00 | 50 | 1000.0 |
| 20260504183404 | 60 | 5 | 9.6 | 23.5 | 0.00 | 0.00 | 0.00 | 49 | 999.9 |
| 20260504183308 | 60 | 355 | 7.8 | 23.5 | 0.00 | 0.00 | 0.00 | 49 | 1000.0 |
| 20260504183215 | 60 | 44 | 9.6 | 23.5 | 0.00 | 0.00 | 0.00 | 50 | 999.9 |
| 20260504183140 | 60 | 344 | 8.7 | 23.5 | 0.00 | 0.00 | 0.00 | 49 | 999.9 |
| 20260504183004 | 60 | 311 | 11.3 | 23.5 | 0.00 | 0.00 | 0.00 | 48 | 999.8 |
| 20260504182908 | 60 | 344 | 13.9 | 23.5 | 0.00 | 0.00 | 0.00 | 48 | 999.9 |
| 20260504182811 | 60 | 337 | 15.6 | 23.5 | 0.00 | 0.00 | 0.00 | 48 | 999.9 |
| 20260504182715 | 60 | 360 | 12.2 | 23.5 | 0.00 | 0.00 | 0.00 | 48 | 999.9 |
| 20260504182619 | 60 | 346 | 10.4 | 23.5 | 0.00 | 0.00 | 0.00 | 52 | 1000.0 |
| 20260504182507 | 60 | 38 | 9.6 | 21.7 | 0.00 | 0.00 | 0.00 | 50 | 999.7 |
| 20260504182430 | 60 | 34 | 9.6 | 21.7 | 0.00 | 0.00 | 0.00 | 49 | 999.7 |
| 20260504182306 | 60 | 22 | 9.6 | 21.7 | 0.00 | 0.00 | 0.00 | 49 | 999.7 |
| 20260504182210 | 60 | 355 | 11.3 | 21.7 | 0.00 | 0.00 | 0.00 | 48 | 999.7 |
| 20260504182114 | 60 | 11 | 13.9 | 21.7 | 0.00 | 0.00 | 0.00 | 47 | 999.7 |
| 20260504182019 | 61 | 349 | 14.8 | 21.7 | 0.00 | 0.00 | 0.00 | 48 | 999.6 |
| 20260504181926 | 61 | 5 | 13.9 | 21.7 | 0.00 | 0.00 | 0.00 | 48 | 999.6 |
| 20260504181851 | 61 | 31 | 13.0 | 21.7 | 0.00 | 0.00 | 0.00 | 48 | 999.7 |
| 20260504181706 | 61 | 350 | 13.0 | 20.0 | 0.00 | 0.00 | 0.00 | 49 | 999.6 |
| 20260504181610 | 61 | 348 | 11.3 | 20.9 | 0.00 | 0.00 | 0.00 | 48 | 999.6 |
| 20260504181532 | 61 | 342 | 8.7 | 20.9 | 0.00 | 0.00 | 0.00 | 50 | 999.6 |
| 20260504181414 | 60 | 318 | 8.7 | 20.9 | 0.00 | 0.00 | 0.00 | 51 | 999.6 |
| 20260504181319 | 60 | 348 | 10.4 | 24.3 | 0.00 | 0.00 | 0.00 | 49 | 999.6 |
| 20260504181206 | 60 | 36 | 10.4 | 24.3 | 0.00 | 0.00 | 0.00 | 47 | 999.5 |
| 20260504181108 | 60 | 30 | 10.4 | 25.2 | 0.00 | 0.00 | 0.00 | 47 | 999.5 |
| 20260504181011 | 60 | 344 | 11.3 | 25.2 | 0.00 | 0.00 | 0.00 | 49 | 999.6 |
| 20260504180916 | 61 | 336 | 13.9 | 25.2 | 0.00 | 0.00 | 0.00 | 47 | 999.7 |
| 20260504180818 | 61 | 10 | 14.8 | 25.2 | 0.00 | 0.00 | 0.00 | 47 | 999.7 |
| 20260504180705 | 61 | 350 | 13.9 | 25.2 | 0.00 | 0.00 | 0.00 | 48 | 999.6 |
| 20260504180628 | 61 | 355 | 15.6 | 25.2 | 0.00 | 0.00 | 0.00 | 48 | 999.6 |
| 20260504180505 | 61 | 20 | 16.5 | 25.2 | 0.00 | 0.00 | 0.00 | 47 | 999.6 |
| 20260504180408 | 61 | 26 | 13.9 | 25.2 | 0.00 | 0.00 | 0.00 | 46 | 999.6 |
| 20260504180331 | 61 | 344 | 13.9 | 25.2 | 0.00 | 0.00 | 0.00 | 48 | 999.6 |
| 20260504180215 | 61 | 296 | 13.0 | 20.9 | 0.00 | 0.00 | 0.00 | 46 | 999.5 |
| 20260504180138 | 61 | 360 | 11.3 | 20.9 | 0.00 | 0.00 | 0.00 | 47 | 999.6 |
| 20260504180004 | 61 | 326 | 10.4 | 20.9 | 0.00 | 0.00 | 0.00 | 47 | 999.5 |
| 20260504175927 | 61 | 355 | 11.3 | 20.9 | 0.00 | 0.00 | 0.00 | 47 | 999.4 |
| 20260504175850 | 61 | 360 | 11.3 | 20.9 | 0.00 | 0.00 | 0.00 | 45 | 999.4 |
| 20260504175704 | 61 | 346 | 14.8 | 20.9 | 0.00 | 0.00 | 0.00 | 43 | 999.2 |
| 20260504175608 | 61 | 344 | 13.0 | 20.9 | 0.00 | 0.00 | 0.00 | 44 | 999.3 |
| 20260504175513 | 61 | 360 | 9.6 | 20.0 | 0.00 | 0.00 | 0.00 | 46 | 999.1 |
| 20260504175417 | 61 | 327 | 7.8 | 20.0 | 0.00 | 0.00 | 0.00 | 45 | 999.1 |
| 20260504175304 | 62 | 355 | 8.7 | 20.0 | 0.00 | 0.00 | 0.00 | 44 | 999.1 |
| 20260504175228 | 62 | 355 | 11.3 | 20.0 | 0.00 | 0.00 | 0.00 | 44 | 999.2 |
| 20260504175130 | 62 | 338 | 13.9 | 20.0 | 0.00 | 0.00 | 0.00 | 43 | 999.2 |
| 20260504175012 | 62 | 346 | 13.0 | 20.0 | 0.00 | 0.00 | 0.00 | 44 | 999.1 |
| 20260504174916 | 62 | 323 | 10.4 | 19.1 | 0.00 | 0.00 | 0.00 | 45 | 999.1 |
| 20260504174821 | 62 | 296 | 9.6 | 19.1 | 0.00 | 0.00 | 0.00 | 45 | 998.9 |
| 20260504174705 | 62 | 337 | 10.4 | 23.5 | 0.00 | 0.00 | 0.00 | 43 | 999.2 |
| 20260504174613 | 62 | 342 | 9.6 | 23.5 | 0.00 | 0.00 | 0.00 | 45 | 999.0 |
| 20260504174514 | 61 | 271 | 8.7 | 23.5 | 0.00 | 0.00 | 0.00 | 45 | 999.0 |
| 20260504174440 | 61 | 347 | 9.6 | 23.5 | 0.00 | 0.00 | 0.00 | 45 | 999.1 |
| 20260504174340 | 61 | 360 | 10.4 | 23.5 | 0.00 | 0.00 | 0.00 | 45 | 999.1 |
| 20260504174204 | 61 | 47 | 13.0 | 23.5 | 0.00 | 0.00 | 0.00 | 42 | 999.1 |
| 20260504174107 | 61 | 346 | 13.9 | 23.5 | 0.00 | 0.00 | 0.00 | 42 | 999.1 |
| 20260504174010 | 61 | 340 | 13.9 | 23.5 | 0.00 | 0.00 | 0.00 | 43 | 999.1 |
| 20260504173937 | 61 | 342 | 12.2 | 23.5 | 0.00 | 0.00 | 0.00 | 45 | 999.0 |
| 20260504173820 | 61 | 316 | 11.3 | 20.9 | 0.00 | 0.00 | 0.00 | 44 | 999.1 |
| 20260504173723 | 61 | 15 | 13.9 | 20.9 | 0.00 | 0.00 | 0.00 | 44 | 999.0 |
| 20260504173627 | 61 | 322 | 13.0 | 20.9 | 0.00 | 0.00 | 0.00 | 44 | 999.1 |
| 20260504173510 | 61 | 308 | 12.2 | 20.9 | 0.00 | 0.00 | 0.00 | 44 | 999.1 |
| 20260504173415 | 61 | 320 | 13.9 | 20.9 | 0.00 | 0.00 | 0.00 | 44 | 999.1 |
| 20260504173319 | 61 | 329 | 13.9 | 21.7 | 0.00 | 0.00 | 0.00 | 43 | 999.1 |
| 20260504173227 | 61 | 340 | 11.3 | 24.3 | 0.00 | 0.00 | 0.00 | 42 | 999.1 |
| 20260504173110 | 61 | 355 | 10.4 | 24.3 | 0.00 | 0.00 | 0.00 | 43 | 999.0 |
| 20260504173014 | 61 | 322 | 12.2 | 24.3 | 0.00 | 0.00 | 0.00 | 44 | 999.1 |
| 20260504172918 | 61 | 327 | 12.2 | 24.3 | 0.00 | 0.00 | 0.00 | 44 | 999.1 |
| 20260504172843 | 61 | 309 | 12.2 | 24.3 | 0.00 | 0.00 | 0.00 | 43 | 999.0 |
| 20260504172727 | 61 | 341 | 11.3 | 24.3 | 0.00 | 0.00 | 0.00 | 44 | 999.0 |
| 20260504172609 | 62 | 343 | 13.0 | 24.3 | 0.00 | 0.00 | 0.00 | 44 | 999.0 |
| 20260504172518 | 61 | 326 | 15.6 | 24.3 | 0.00 | 0.00 | 0.00 | 44 | 999.2 |
| 20260504172421 | 61 | 328 | 14.8 | 24.3 | 0.00 | 0.00 | 0.00 | 43 | 999.1 |
| 20260504172325 | 61 | 336 | 13.9 | 19.1 | 0.00 | 0.00 | 0.00 | 42 | 999.0 |
| 20260504172207 | 61 | 333 | 13.9 | 19.1 | 0.00 | 0.00 | 0.00 | 43 | 999.0 |
| 20260504172110 | 61 | 338 | 13.0 | 19.1 | 0.00 | 0.00 | 0.00 | 44 | 998.9 |
| 20260504172013 | 61 | 350 | 9.6 | 19.1 | 0.00 | 0.00 | 0.00 | 44 | 998.9 |
| 20260504171920 | 61 | 360 | 8.7 | 19.1 | 0.00 | 0.00 | 0.00 | 47 | 999.0 |
| 20260504171844 | 61 | 360 | 11.3 | 19.1 | 0.00 | 0.00 | 0.00 | 47 | 998.9 |
| 20260504171707 | 61 | 327 | 13.0 | 19.1 | 0.00 | 0.00 | 0.00 | 48 | 998.9 |
| 20260504171632 | 61 | 306 | 11.3 | 19.1 | 0.00 | 0.00 | 0.00 | 48 | 999.0 |
| 20260504171513 | 61 | 319 | 11.3 | 18.2 | 0.00 | 0.00 | 0.00 | 48 | 999.1 |
| 20260504171438 | 61 | 331 | 12.2 | 18.2 | 0.00 | 0.00 | 0.00 | 50 | 999.1 |
| 20260504171320 | 60 | 291 | 12.2 | 18.2 | 0.00 | 0.00 | 0.00 | 49 | 999.1 |
| 20260504171207 | 60 | 337 | 12.2 | 18.2 | 0.00 | 0.00 | 0.00 | 46 | 999.1 |
| 20260504171132 | 60 | 355 | 10.4 | 17.4 | 0.00 | 0.00 | 0.00 | 47 | 999.3 |
| 20260504171016 | 60 | 329 | 11.3 | 17.4 | 0.00 | 0.00 | 0.00 | 48 | 999.2 |
| 20260504170922 | 60 | 355 | 10.4 | 17.4 | 0.00 | 0.00 | 0.00 | 49 | 999.2 |
| 20260504170805 | 60 | 312 | 10.4 | 17.4 | 0.00 | 0.00 | 0.00 | 50 | 999.2 |
| 20260504170709 | 60 | 321 | 10.4 | 18.2 | 0.00 | 0.00 | 0.00 | 49 | 999.0 |
| 20260504170612 | 60 | 293 | 9.6 | 18.2 | 0.00 | 0.00 | 0.00 | 48 | 999.1 |
| 20260504170519 | 60 | 332 | 8.7 | 18.2 | 0.00 | 0.00 | 0.00 | 50 | 999.0 |
| 20260504170423 | 60 | 311 | 11.3 | 18.2 | 0.00 | 0.00 | 0.00 | 50 | 999.0 |
| 20260504170328 | 60 | 346 | 11.3 | 18.2 | 0.00 | 0.00 | 0.00 | 49 | 999.1 |
| 20260504170212 | 60 | 306 | 10.4 | 18.2 | 0.00 | 0.00 | 0.00 | 48 | 999.0 |
| 20260504170115 | 60 | 341 | 12.2 | 18.2 | 0.00 | 0.00 | 0.00 | 49 | 999.0 |
| 20260504160404 | 61 | 329 | 11.3 | 17.4 | 0.00 | 0.00 | 0.00 | 48 | 998.8 |
| 20260504160329 | 61 | 296 | 10.4 | 17.4 | 0.00 | 0.00 | 0.00 | 46 | 998.8 |
| 20260504160232 | 61 | 360 | 9.6 | 16.5 | 0.00 | 0.00 | 0.00 | 48 | 998.9 |
| 20260504160116 | 61 | 348 | 7.8 | 19.1 | 0.00 | 0.00 | 0.00 | 47 | 998.8 |
| 20260504151127 | 60 | 317 | 10.4 | 23.5 | 0.00 | 0.00 | 0.00 | 47 | 998.4 |
| 20260504151011 | 60 | 327 | 11.3 | 23.5 | 0.00 | 0.00 | 0.00 | 47 | 998.5 |
| 20260504150919 | 60 | 339 | 13.0 | 23.5 | 0.00 | 0.00 | 0.00 | 47 | 998.4 |
| 20260504150825 | 59 | 340 | 13.0 | 23.5 | 0.00 | 0.00 | 0.00 | 46 | 998.3 |
| 20260504150727 | 60 | 5 | 13.0 | 23.5 | 0.00 | 0.00 | 0.00 | 48 | 998.4 |
| 20260504150605 | 59 | 317 | 13.0 | 23.5 | 0.00 | 0.00 | 0.00 | 47 | 998.4 |
| 20260504150529 | 60 | 308 | 13.0 | 23.5 | 0.00 | 0.00 | 0.00 | 48 | 998.5 |
| 20260504150412 | 59 | 311 | 12.2 | 23.5 | 0.00 | 0.00 | 0.00 | 47 | 998.4 |
| 20260504150338 | 59 | 11 | 11.3 | 23.5 | 0.00 | 0.00 | 0.00 | 48 | 998.3 |
| 20260504150241 | 59 | 9 | 12.2 | 20.9 | 0.00 | 0.00 | 0.00 | 46 | 998.3 |
| 20260504150127 | 59 | 349 | 13.0 | 20.9 | 0.00 | 0.00 | 0.00 | 48 | 998.2 |
| 20260504141323 | 59 | 355 | 9.6 | 14.8 | 0.00 | 0.00 | 0.00 | 51 | 998.3 |
| 20260504141207 | 59 | 360 | 7.8 | 14.8 | 0.00 | 0.00 | 0.00 | 51 | 998.3 |
| 20260504141110 | 59 | 299 | 4.3 | 16.5 | 0.00 | 0.00 | 0.00 | 51 | 998.1 |
| 20260504141018 | 59 | 336 | 5.2 | 20.0 | 0.00 | 0.00 | 0.00 | 51 | 998.1 |
| 20260504140921 | 59 | 304 | 7.0 | 20.0 | 0.00 | 0.00 | 0.00 | 51 | 998.3 |
| 20260504140824 | 59 | 16 | 9.6 | 20.0 | 0.00 | 0.00 | 0.00 | 50 | 998.2 |
| 20260504140748 | 59 | 335 | 10.4 | 20.0 | 0.00 | 0.00 | 0.00 | 49 | 998.2 |
| 20260504140604 | 59 | 339 | 8.7 | 20.0 | 0.00 | 0.00 | 0.00 | 51 | 998.2 |
| 20260504140529 | 58 | 22 | 9.6 | 20.0 | 0.00 | 0.00 | 0.00 | 51 | 998.2 |
| 20260504140406 | 58 | 346 | 10.4 | 20.0 | 0.00 | 0.00 | 0.00 | 49 | 998.1 |
| 20260504140314 | 58 | 346 | 12.2 | 20.0 | 0.00 | 0.00 | 0.00 | 49 | 998.2 |
| 20260504140239 | 58 | 355 | 13.9 | 20.0 | 0.00 | 0.00 | 0.00 | 48 | 998.2 |
| 20260504140141 | 58 | 343 | 12.2 | 20.0 | 0.00 | 0.00 | 0.00 | 49 | 998.3 |
| 20260504130711 | 59 | 333 | 13.0 | 21.7 | 0.00 | 0.00 | 0.00 | 53 | 997.6 |
| 20260504130615 | 59 | 360 | 9.6 | 18.2 | 0.00 | 0.00 | 0.00 | 54 | 997.6 |
| 20260504130520 | 59 | 360 | 8.7 | 17.4 | 0.00 | 0.00 | 0.00 | 54 | 997.5 |
| 20260504130428 | 59 | 5 | 7.0 | 18.2 | 0.00 | 0.00 | 0.00 | 55 | 997.4 |
| 20260504130304 | 60 | 348 | 6.1 | 18.2 | 0.00 | 0.00 | 0.00 | 55 | 997.4 |
| 20260504130209 | 60 | 344 | 7.0 | 18.2 | 0.00 | 0.00 | 0.00 | 55 | 997.3 |
| 20260504130113 | 60 | 284 | 10.4 | 18.2 | 0.00 | 0.00 | 0.00 | 55 | 997.3 |
| 20260504120206 | 60 | 313 | 13.0 | 21.7 | 0.00 | 0.00 | 0.00 | 49 | 996.2 |
| 20260504120111 | 60 | 320 | 10.4 | 21.7 | 0.00 | 0.00 | 0.00 | 49 | 996.4 |
| 20260504110709 | 58 | 281 | 7.8 | 13.9 | 0.00 | 0.00 | 0.00 | 49 | 995.6 |
| 20260504110612 | 58 | 285 | 8.7 | 13.9 | 0.00 | 0.00 | 0.00 | 48 | 995.6 |
| 20260504110520 | 58 | 293 | 7.8 | 12.2 | 0.00 | 0.00 | 0.00 | 49 | 995.6 |
| 20260504110423 | 58 | 296 | 7.8 | 12.2 | 0.00 | 0.00 | 0.00 | 48 | 995.6 |
| 20260504110309 | 58 | 277 | 7.8 | 12.2 | 0.00 | 0.00 | 0.00 | 49 | 995.6 |
| 20260504110215 | 58 | 315 | 7.8 | 12.2 | 0.00 | 0.00 | 0.00 | 48 | 995.6 |
| 20260504110119 | 58 | 269 | 7.8 | 12.2 | 0.00 | 0.00 | 0.00 | 48 | 995.7 |
| 20260504100540 | 59 | 284 | 7.8 | 14.8 | 0.00 | 0.00 | 0.00 | 45 | 995.6 |
| 20260504100421 | 59 | 225 | 7.8 | 14.8 | 0.00 | 0.00 | 0.00 | 44 | 995.7 |
| 20260504100326 | 59 | 276 | 7.8 | 14.8 | 0.00 | 0.00 | 0.00 | 44 | 995.7 |
| 20260504100229 | 59 | 255 | 7.8 | 14.8 | 0.00 | 0.00 | 0.00 | 44 | 995.7 |
| 20260504100112 | 59 | 244 | 7.8 | 14.8 | 0.00 | 0.00 | 0.00 | 45 | 995.8 |
| 20260504090106 | 59 | 271 | 7.8 | 14.8 | 0.00 | 0.00 | 0.00 | 44 | 996.7 |
| 20260504081950 | 58 | 250 | 5.2 | 11.3 | 0.00 | 0.00 | 0.00 | 45 | 997.8 |
| 20260504081806 | 58 | 243 | 5.2 | 11.3 | 0.00 | 0.00 | 0.00 | 45 | 997.8 |
| 20260504081730 | 58 | 262 | 6.1 | 11.3 | 0.00 | 0.00 | 0.00 | 44 | 997.9 |
| 20260504081607 | 58 | 236 | 7.0 | 11.3 | 0.00 | 0.00 | 0.00 | 44 | 997.8 |
| 20260504081512 | 58 | 238 | 7.0 | 11.3 | 0.00 | 0.00 | 0.00 | 44 | 997.8 |
| 20260504081420 | 58 | 262 | 5.2 | 9.6 | 0.00 | 0.00 | 0.00 | 45 | 997.8 |
| 20260504081323 | 58 | 273 | 4.3 | 9.6 | 0.00 | 0.00 | 0.00 | 45 | 997.9 |
| 20260504081227 | 58 | 228 | 4.3 | 9.6 | 0.00 | 0.00 | 0.00 | 45 | 997.9 |
| 20260504081129 | 58 | 265 | 6.1 | 9.6 | 0.00 | 0.00 | 0.00 | 44 | 998.0 |
| 20260504081032 | 58 | 247 | 6.1 | 9.6 | 0.00 | 0.00 | 0.00 | 45 | 997.9 |
| 20260504080915 | 58 | 236 | 5.2 | 9.6 | 0.00 | 0.00 | 0.00 | 45 | 998.0 |
| 20260504080820 | 58 | 267 | 5.2 | 9.6 | 0.00 | 0.00 | 0.00 | 44 | 998.0 |
| 20260504080728 | 58 | 236 | 5.2 | 9.6 | 0.00 | 0.00 | 0.00 | 45 | 998.1 |
| 20260504080611 | 58 | 226 | 5.2 | 9.6 | 0.00 | 0.00 | 0.00 | 44 | 998.1 |
| 20260504080516 | 58 | 260 | 5.2 | 9.6 | 0.00 | 0.00 | 0.00 | 45 | 998.1 |
| 20260504080419 | 58 | 234 | 4.3 | 8.7 | 0.00 | 0.00 | 0.00 | 45 | 998.1 |
| 20260504080343 | 58 | 269 | 4.3 | 7.8 | 0.00 | 0.00 | 0.00 | 45 | 998.2 |
| 20260504080227 | 58 | 233 | 4.3 | 7.8 | 0.00 | 0.00 | 0.00 | 45 | 998.2 |
| 20260504080110 | 58 | 246 | 4.3 | 7.8 | 0.00 | 0.00 | 0.00 | 45 | 998.2 |
| 20260504070307 | 58 | 239 | 4.3 | 9.6 | 0.00 | 0.00 | 0.00 | 46 | 999.2 |
| 20260504070211 | 58 | 244 | 5.2 | 9.6 | 0.00 | 0.00 | 0.00 | 46 | 999.3 |
| 20260504070114 | 58 | 236 | 5.2 | 10.4 | 0.00 | 0.00 | 0.00 | 46 | 999.2 |
| 20260504060218 | 58 | 240 | 4.3 | 8.7 | 0.00 | 0.00 | 0.00 | 47 | 1000.6 |
| 20260504060121 | 58 | 255 | 4.3 | 8.7 | 0.00 | 0.00 | 0.00 | 48 | 1000.6 |
| 20260504050705 | 57 | 228 | 3.5 | 7.0 | 0.00 | 0.00 | 0.00 | 49 | 1001.6 |
| 20260504050608 | 57 | 248 | 2.6 | 7.0 | 0.00 | 0.00 | 0.00 | 50 | 1001.6 |
| 20260504050512 | 57 | 254 | 3.5 | 7.0 | 0.00 | 0.00 | 0.00 | 49 | 1001.7 |
| 20260504050420 | 57 | 209 | 3.5 | 7.0 | 0.00 | 0.00 | 0.00 | 49 | 1001.7 |
| 20260504050303 | 57 | 228 | 2.6 | 7.0 | 0.00 | 0.00 | 0.00 | 49 | 1001.8 |
| 20260504050227 | 57 | 231 | 2.6 | 7.0 | 0.00 | 0.00 | 0.00 | 49 | 1001.8 |
| 20260504050104 | 57 | 228 | 2.6 | 7.0 | 0.00 | 0.00 | 0.00 | 49 | 1001.8 |
| 20260504050009 | 57 | 227 | 3.5 | 7.0 | 0.00 | 0.00 | 0.00 | 49 | 1001.8 |
| 20260504045933 | 57 | 235 | 4.3 | 7.0 | 0.00 | 0.00 | 0.00 | 50 | 1001.8 |
| 20260504045817 | 57 | 248 | 3.5 | 6.1 | 0.00 | 0.00 | 0.00 | 50 | 1001.8 |
| 20260504045705 | 57 | 257 | 3.5 | 6.1 | 0.00 | 0.00 | 0.00 | 50 | 1001.8 |
| 20260504045629 | 57 | 239 | 3.5 | 6.1 | 0.00 | 0.00 | 0.00 | 50 | 1001.8 |
| 20260504045554 | 57 | 217 | 3.5 | 5.2 | 0.00 | 0.00 | 0.00 | 50 | 1001.8 |
| 20260504045407 | 56 | 200 | 2.6 | 5.2 | 0.00 | 0.00 | 0.00 | 51 | 1001.9 |
| 20260504045310 | 56 | 236 | 3.5 | 5.2 | 0.00 | 0.00 | 0.00 | 50 | 1001.9 |
| 20260504045234 | 56 | 246 | 3.5 | 5.2 | 0.00 | 0.00 | 0.00 | 50 | 1001.9 |
| 20260504045118 | 56 | 221 | 3.5 | 6.1 | 0.00 | 0.00 | 0.00 | 51 | 1002.0 |
| 20260504045004 | 56 | 199 | 3.5 | 6.1 | 0.00 | 0.00 | 0.00 | 51 | 1001.9 |
| 20260504044927 | 56 | 240 | 3.5 | 6.1 | 0.00 | 0.00 | 0.00 | 51 | 1002.0 |
| 20260504044804 | 55 | 228 | 3.5 | 5.2 | 0.00 | 0.00 | 0.00 | 53 | 1001.9 |
| 20260504044708 | 55 | 230 | 2.6 | 5.2 | 0.00 | 0.00 | 0.00 | 53 | 1002.0 |
| 20260504044610 | 55 | 219 | 2.6 | 5.2 | 0.00 | 0.00 | 0.00 | 53 | 1001.9 |
| 20260504044515 | 55 | 221 | 3.5 | 5.2 | 0.00 | 0.00 | 0.00 | 53 | 1002.0 |
| 20260504044421 | 55 | 220 | 3.5 | 5.2 | 0.00 | 0.00 | 0.00 | 54 | 1002.1 |
| 20260504044305 | 54 | 220 | 2.6 | 5.2 | 0.00 | 0.00 | 0.00 | 54 | 1002.0 |
| 20260504044210 | 54 | 228 | 2.6 | 5.2 | 0.00 | 0.00 | 0.00 | 55 | 1002.1 |
| 20260504044114 | 54 | 232 | 2.6 | 5.2 | 0.00 | 0.00 | 0.00 | 55 | 1002.2 |
| 20260504044017 | 54 | 225 | 2.6 | 5.2 | 0.00 | 0.00 | 0.00 | 56 | 1002.2 |
| 20260504043941 | 54 | 229 | 2.6 | 5.2 | 0.00 | 0.00 | 0.00 | 56 | 1002.2 |
| 20260504043806 | 53 | 238 | 2.6 | 6.1 | 0.00 | 0.00 | 0.00 | 57 | 1002.1 |
| 20260504043709 | 53 | 214 | 2.6 | 6.1 | 0.00 | 0.00 | 0.00 | 58 | 1002.1 |
| 20260504043611 | 53 | 214 | 3.5 | 6.1 | 0.00 | 0.00 | 0.00 | 58 | 1002.2 |
| 20260504043516 | 53 | 237 | 3.5 | 6.1 | 0.00 | 0.00 | 0.00 | 59 | 1002.2 |
| 20260504043419 | 53 | 241 | 2.6 | 6.1 | 0.00 | 0.00 | 0.00 | 62 | 1002.2 |
| 20260504043322 | 53 | 232 | 2.6 | 3.5 | 0.00 | 0.00 | 0.00 | 61 | 1002.3 |
| 20260504043229 | 53 | 235 | 2.6 | 3.5 | 0.00 | 0.00 | 0.00 | 61 | 1002.3 |
| 20260504043105 | 52 | 236 | 2.6 | 3.5 | 0.00 | 0.00 | 0.00 | 62 | 1002.3 |
| 20260504043009 | 52 | 236 | 2.6 | 3.5 | 0.00 | 0.00 | 0.00 | 64 | 1002.3 |
| 20260504042912 | 52 | 234 | 2.6 | 3.5 | 0.00 | 0.00 | 0.00 | 64 | 1002.4 |
| 20260504042816 | 52 | 237 | 2.6 | 3.5 | 0.00 | 0.00 | 0.00 | 63 | 1002.4 |
| 20260504042718 | 52 | 238 | 2.6 | 3.5 | 0.00 | 0.00 | 0.00 | 64 | 1002.4 |
| 20260504042606 | 52 | 243 | 1.7 | 5.2 | 0.00 | 0.00 | 0.00 | 63 | 1002.5 |
| 20260504042530 | 52 | 243 | 2.6 | 5.2 | 0.00 | 0.00 | 0.00 | 64 | 1002.4 |
| 20260504042412 | 52 | 243 | 2.6 | 5.2 | 0.00 | 0.00 | 0.00 | 65 | 1002.4 |
| 20260504042317 | 52 | 243 | 2.6 | 5.2 | 0.00 | 0.00 | 0.00 | 65 | 1002.5 |
| 20260504042220 | 52 | 244 | 2.6 | 5.2 | 0.00 | 0.00 | 0.00 | 65 | 1002.5 |
| 20260504042122 | 52 | 248 | 1.7 | 5.2 | 0.00 | 0.00 | 0.00 | 63 | 1002.5 |
| 20260504042010 | 52 | 259 | 1.7 | 5.2 | 0.00 | 0.00 | 0.00 | 65 | 1002.4 |
| 20260504041916 | 51 | 238 | 2.6 | 5.2 | 0.00 | 0.00 | 0.00 | 64 | 1002.5 |
| 20260504041819 | 51 | 238 | 2.6 | 5.2 | 0.00 | 0.00 | 0.00 | 64 | 1002.6 |
| 20260504041722 | 51 | 234 | 2.6 | 4.3 | 0.00 | 0.00 | 0.00 | 65 | 1002.5 |
| 20260504041645 | 51 | 253 | 2.6 | 3.5 | 0.00 | 0.00 | 0.00 | 65 | 1002.6 |
| 20260504041507 | 51 | 239 | 2.6 | 3.5 | 0.00 | 0.00 | 0.00 | 66 | 1002.6 |
| 20260504041409 | 51 | 240 | 2.6 | 3.5 | 0.00 | 0.00 | 0.00 | 68 | 1002.7 |
| 20260504041336 | 51 | 240 | 2.6 | 3.5 | 0.00 | 0.00 | 0.00 | 67 | 1002.7 |
| 20260504041240 | 51 | 236 | 2.6 | 3.5 | 0.00 | 0.00 | 0.00 | 67 | 1002.7 |
| 20260504041121 | 51 | 236 | 1.7 | 3.5 | 0.00 | 0.00 | 0.00 | 68 | 1002.8 |
| 20260504041024 | 51 | 241 | 1.7 | 3.5 | 0.00 | 0.00 | 0.00 | 68 | 1002.7 |
| 20260504040906 | 51 | 242 | 1.7 | 3.5 | 0.00 | 0.00 | 0.00 | 68 | 1002.8 |
| 20260504040831 | 51 | 242 | 1.7 | 3.5 | 0.00 | 0.00 | 0.00 | 68 | 1002.8 |
| 20260504040713 | 51 | 242 | 1.7 | 3.5 | 0.00 | 0.00 | 0.00 | 68 | 1002.9 |
| 20260504040617 | 51 | 246 | 1.7 | 3.5 | 0.00 | 0.00 | 0.00 | 67 | 1002.9 |
| 20260504040525 | 51 | 246 | 1.7 | 3.5 | 0.00 | 0.00 | 0.00 | 67 | 1002.9 |
| 20260504040448 | 51 | 246 | 1.7 | 3.5 | 0.00 | 0.00 | 0.00 | 67 | 1003.0 |
| 20260504040304 | 51 | 250 | 1.7 | 3.5 | 0.00 | 0.00 | 0.00 | 67 | 1003.0 |
| 20260504040209 | 51 | 250 | 1.7 | 3.5 | 0.00 | 0.00 | 0.00 | 66 | 1003.0 |
| 20260504040111 | 50 | 240 | 1.7 | 3.5 | 0.00 | 0.00 | 0.00 | 66 | 1003.0 |
| 20260504040015 | 50 | 240 | 1.7 | 3.5 | 0.00 | 0.00 | 0.00 | 65 | 1003.0 |
| 20260504035903 | 50 | 240 | 1.7 | 3.5 | 0.00 | 0.00 | 0.00 | 65 | 1003.0 |
| 20260504035827 | 50 | 240 | 1.7 | 3.5 | 0.00 | 0.00 | 0.00 | 65 | 1003.1 |
| 20260504035704 | 50 | 244 | 1.7 | 3.5 | 0.00 | 0.00 | 0.00 | 67 | 1003.0 |
| 20260504035608 | 50 | 244 | 1.7 | 3.5 | 0.00 | 0.00 | 0.00 | 67 | 1003.0 |
| 20260504035513 | 50 | 244 | 1.7 | 3.5 | 0.00 | 0.00 | 0.00 | 67 | 1003.1 |
| 20260504035417 | 50 | 246 | 1.7 | 3.5 | 0.00 | 0.00 | 0.00 | 68 | 1003.1 |
| 20260504035306 | 50 | 246 | 1.7 | 3.5 | 0.00 | 0.00 | 0.00 | 67 | 1003.1 |
| 20260504035209 | 50 | 246 | 1.7 | 3.5 | 0.00 | 0.00 | 0.00 | 67 | 1003.1 |
| 20260504035112 | 50 | 248 | 1.7 | 2.6 | 0.00 | 0.00 | 0.00 | 69 | 1003.2 |
| 20260504035016 | 50 | 248 | 1.7 | 2.6 | 0.00 | 0.00 | 0.00 | 68 | 1003.2 |
| 20260504034920 | 50 | 248 | 1.7 | 2.6 | 0.00 | 0.00 | 0.00 | 68 | 1003.3 |
| 20260504034806 | 50 | 248 | 1.7 | 2.6 | 0.00 | 0.00 | 0.00 | 69 | 1003.3 |
| 20260504034714 | 50 | 248 | 1.7 | 2.6 | 0.00 | 0.00 | 0.00 | 69 | 1003.2 |
| 20260504034618 | 50 | 248 | 1.7 | 2.6 | 0.00 | 0.00 | 0.00 | 69 | 1003.2 |
| 20260504034523 | 50 | 248 | 1.7 | 2.6 | 0.00 | 0.00 | 0.00 | 69 | 1003.3 |
| 20260504034407 | 50 | 248 | 1.7 | 2.6 | 0.00 | 0.00 | 0.00 | 69 | 1003.3 |
| 20260504034310 | 50 | 248 | 1.7 | 2.6 | 0.00 | 0.00 | 0.00 | 69 | 1003.3 |
| 20260504034215 | 50 | 248 | 1.7 | 2.6 | 0.00 | 0.00 | 0.00 | 70 | 1003.4 |
| 20260504034103 | 50 | 248 | 0.9 | 2.6 | 0.00 | 0.00 | 0.00 | 70 | 1003.3 |
| 20260504034028 | 50 | 248 | 1.7 | 2.6 | 0.00 | 0.00 | 0.00 | 71 | 1003.3 |
| 20260504033904 | 50 | 248 | 1.7 | 2.6 | 0.00 | 0.00 | 0.00 | 71 | 1003.4 |
| 20260504033808 | 50 | 249 | 1.7 | 2.6 | 0.00 | 0.00 | 0.00 | 71 | 1003.3 |
| 20260504033714 | 50 | 250 | 1.7 | 2.6 | 0.00 | 0.00 | 0.00 | 70 | 1003.4 |
| 20260504033616 | 50 | 250 | 1.7 | 2.6 | 0.00 | 0.00 | 0.00 | 70 | 1003.5 |
| 20260504033504 | 50 | 251 | 1.7 | 2.6 | 0.00 | 0.00 | 0.00 | 70 | 1003.5 |
| 20260504033408 | 50 | 251 | 1.7 | 2.6 | 0.00 | 0.00 | 0.00 | 70 | 1003.5 |
| 20260504033310 | 50 | 252 | 1.7 | 2.6 | 0.00 | 0.00 | 0.00 | 70 | 1003.5 |
| 20260504033216 | 50 | 254 | 1.7 | 2.6 | 0.00 | 0.00 | 0.00 | 69 | 1003.5 |
| 20260504033119 | 51 | 254 | 1.7 | 2.6 | 0.00 | 0.00 | 0.00 | 70 | 1003.5 |
| 20260504033021 | 51 | 256 | 1.7 | 2.6 | 0.00 | 0.00 | 0.00 | 70 | 1003.6 |
| 20260504032948 | 51 | 257 | 1.7 | 2.6 | 0.00 | 0.00 | 0.00 | 69 | 1003.7 |
| 20260504032803 | 51 | 257 | 1.7 | 2.6 | 0.00 | 0.00 | 0.00 | 68 | 1003.7 |
| 20260504032707 | 51 | 257 | 1.7 | 2.6 | 0.00 | 0.00 | 0.00 | 67 | 1003.7 |
| 20260504032611 | 51 | 257 | 1.7 | 2.6 | 0.00 | 0.00 | 0.00 | 67 | 1003.7 |
| 20260504032537 | 51 | 257 | 1.7 | 2.6 | 0.00 | 0.00 | 0.00 | 66 | 1003.7 |
| 20260504032420 | 51 | 257 | 1.7 | 2.6 | 0.00 | 0.00 | 0.00 | 66 | 1003.8 |
| 20260504032307 | 51 | 257 | 1.7 | 2.6 | 0.00 | 0.00 | 0.00 | 66 | 1003.8 |
| 20260504032230 | 51 | 257 | 1.7 | 2.6 | 0.00 | 0.00 | 0.00 | 65 | 1003.9 |
| 20260504032106 | 51 | 259 | 1.7 | 2.6 | 0.00 | 0.00 | 0.00 | 66 | 1003.8 |
| 20260504032030 | 51 | 259 | 1.7 | 2.6 | 0.00 | 0.00 | 0.00 | 66 | 1003.9 |
| 20260504031905 | 51 | 259 | 0.9 | 2.6 | 0.00 | 0.00 | 0.00 | 66 | 1003.8 |
| 20260504031809 | 51 | 259 | 1.7 | 2.6 | 0.00 | 0.00 | 0.00 | 66 | 1003.9 |
| 20260504031734 | 51 | 259 | 1.7 | 2.6 | 0.00 | 0.00 | 0.00 | 66 | 1004.0 |
| 20260504031622 | 51 | 259 | 1.7 | 2.6 | 0.00 | 0.00 | 0.00 | 65 | 1004.0 |
| 20260504031527 | 51 | 259 | 1.7 | 2.6 | 0.00 | 0.00 | 0.00 | 65 | 1004.0 |
| 20260504031403 | 51 | 259 | 0.9 | 1.7 | 0.00 | 0.00 | 0.00 | 66 | 1004.0 |
| 20260504031308 | 51 | 259 | 1.7 | 1.7 | 0.00 | 0.00 | 0.00 | 66 | 1004.0 |
| 20260504031210 | 51 | 259 | 0.9 | 1.7 | 0.00 | 0.00 | 0.00 | 66 | 1004.0 |
| 20260504031114 | 51 | 259 | 0.9 | 1.7 | 0.00 | 0.00 | 0.00 | 66 | 1004.1 |
| 20260504031023 | 52 | 259 | 0.9 | 2.6 | 0.00 | 0.00 | 0.00 | 66 | 1004.1 |
| 20260504030927 | 52 | 259 | 1.7 | 2.6 | 0.00 | 0.00 | 0.00 | 66 | 1004.1 |
| 20260504030810 | 52 | 259 | 0.9 | 2.6 | 0.00 | 0.00 | 0.00 | 66 | 1004.1 |
| 20260504030735 | 52 | 259 | 0.9 | 2.6 | 0.00 | 0.00 | 0.00 | 66 | 1004.1 |
| 20260504030618 | 52 | 259 | 0.9 | 2.6 | 0.00 | 0.00 | 0.00 | 66 | 1004.0 |
| 20260504030522 | 52 | 259 | 0.9 | 2.6 | 0.00 | 0.00 | 0.00 | 65 | 1004.1 |
| 20260504030407 | 52 | 259 | 1.7 | 2.6 | 0.00 | 0.00 | 0.00 | 65 | 1004.1 |
| 20260504030334 | 52 | 259 | 1.7 | 2.6 | 0.00 | 0.00 | 0.00 | 65 | 1004.1 |
| 20260504030218 | 52 | 259 | 1.7 | 2.6 | 0.00 | 0.00 | 0.00 | 64 | 1004.1 |
| 20260504030121 | 52 | 259 | 1.7 | 2.6 | 0.00 | 0.00 | 0.00 | 64 | 1004.2 |
| 20260504030005 | 52 | 259 | 1.7 | 2.6 | 0.00 | 0.00 | 0.00 | 64 | 1004.1 |
| 20260504025927 | 52 | 259 | 1.7 | 2.6 | 0.00 | 0.00 | 0.00 | 62 | 1004.2 |
| 20260504025808 | 52 | 259 | 1.7 | 2.6 | 0.00 | 0.00 | 0.00 | 61 | 1004.1 |
| 20260504025711 | 52 | 259 | 1.7 | 2.6 | 0.00 | 0.00 | 0.00 | 61 | 1004.2 |
| 20260504025639 | 52 | 259 | 1.7 | 2.6 | 0.00 | 0.00 | 0.00 | 61 | 1004.2 |
| 20260504025541 | 52 | 259 | 1.7 | 2.6 | 0.00 | 0.00 | 0.00 | 61 | 1004.2 |
| 20260504025424 | 52 | 259 | 1.7 | 2.6 | 0.00 | 0.00 | 0.00 | 60 | 1004.2 |
| 20260504025328 | 52 | 259 | 1.7 | 2.6 | 0.00 | 0.00 | 0.00 | 61 | 1004.2 |
| 20260504025204 | 53 | 260 | 1.7 | 2.6 | 0.00 | 0.00 | 0.00 | 60 | 1004.2 |
| 20260504025128 | 53 | 259 | 1.7 | 2.6 | 0.00 | 0.00 | 0.00 | 59 | 1004.2 |
| 20260504025030 | 53 | 260 | 1.7 | 2.6 | 0.00 | 0.00 | 0.00 | 59 | 1004.2 |
| 20260504024931 | 53 | 259 | 1.7 | 2.6 | 0.00 | 0.00 | 0.00 | 59 | 1004.3 |
| 20260504024813 | 53 | 260 | 1.7 | 2.6 | 0.00 | 0.00 | 0.00 | 59 | 1004.3 |
| 20260504024720 | 53 | 259 | 1.7 | 2.6 | 0.00 | 0.00 | 0.00 | 57 | 1004.3 |
| 20260504024605 | 53 | 260 | 1.7 | 2.6 | 0.00 | 0.00 | 0.00 | 57 | 1004.3 |
| 20260504024529 | 53 | 260 | 1.7 | 2.6 | 0.00 | 0.00 | 0.00 | 57 | 1004.3 |
| 20260504024409 | 53 | 259 | 1.7 | 2.6 | 0.00 | 0.00 | 0.00 | 57 | 1004.3 |
| 20260504024333 | 54 | 260 | 1.7 | 2.6 | 0.00 | 0.00 | 0.00 | 57 | 1004.3 |
| 20260504024218 | 54 | 260 | 1.7 | 2.6 | 0.00 | 0.00 | 0.00 | 59 | 1004.3 |
| 20260504024142 | 54 | 260 | 1.7 | 2.6 | 0.00 | 0.00 | 0.00 | 56 | 1004.4 |
| 20260504024028 | 54 | 260 | 1.7 | 2.6 | 0.00 | 0.00 | 0.00 | 55 | 1004.3 |
| 20260504023905 | 54 | 264 | 0.9 | 2.6 | 0.00 | 0.00 | 0.00 | 54 | 1004.3 |
| 20260504023828 | 54 | 264 | 0.9 | 1.7 | 0.00 | 0.00 | 0.00 | 56 | 1004.3 |
| 20260504023705 | 54 | 270 | 0.9 | 1.7 | 0.00 | 0.00 | 0.00 | 55 | 1004.4 |
| 20260504023611 | 54 | 270 | 0.9 | 1.7 | 0.00 | 0.00 | 0.00 | 56 | 1004.4 |
| 20260504023535 | 54 | 270 | 0.0 | 1.7 | 0.00 | 0.00 | 0.00 | 56 | 1004.4 |
| 20260504023417 | 54 | 270 | 0.0 | 1.7 | 0.00 | 0.00 | 0.00 | 58 | 1004.3 |
| 20260504023307 | 54 | 270 | 0.9 | 1.7 | 0.00 | 0.00 | 0.00 | 57 | 1004.4 |
| 20260504023211 | 54 | 270 | 0.9 | 1.7 | 0.00 | 0.00 | 0.00 | 56 | 1004.4 |
| 20260504023114 | 54 | 270 | 0.9 | 1.7 | 0.00 | 0.00 | 0.00 | 55 | 1004.4 |
| 20260504023019 | 54 | 270 | 0.9 | 1.7 | 0.00 | 0.00 | 0.00 | 54 | 1004.4 |
| 20260504022923 | 54 | 270 | 0.9 | 1.7 | 0.00 | 0.00 | 0.00 | 52 | 1004.4 |
| 20260504022812 | 55 | 270 | 0.9 | 1.7 | 0.00 | 0.00 | 0.00 | 52 | 1004.4 |
| 20260504022717 | 55 | 270 | 0.9 | 1.7 | 0.00 | 0.00 | 0.00 | 51 | 1004.4 |
| 20260504022620 | 55 | 270 | 0.9 | 1.7 | 0.00 | 0.00 | 0.00 | 51 | 1004.4 |
| 20260504022543 | 55 | 270 | 0.9 | 1.7 | 0.00 | 0.00 | 0.00 | 51 | 1004.4 |
| 20260504022427 | 55 | 270 | 0.9 | 1.7 | 0.00 | 0.00 | 0.00 | 52 | 1004.4 |
| 20260504022351 | 55 | 270 | 0.9 | 1.7 | 0.00 | 0.00 | 0.00 | 53 | 1004.4 |
| 20260504022208 | 55 | 270 | 0.9 | 1.7 | 0.00 | 0.00 | 0.00 | 50 | 1004.3 |
| 20260504022132 | 55 | 270 | 0.9 | 1.7 | 0.00 | 0.00 | 0.00 | 50 | 1004.3 |
| 20260504022039 | 55 | 270 | 0.9 | 1.7 | 0.00 | 0.00 | 0.00 | 51 | 1004.3 |
| 20260504021943 | 55 | 270 | 0.9 | 1.7 | 0.00 | 0.00 | 0.00 | 51 | 1004.4 |
| 20260504021807 | 55 | 270 | 0.9 | 1.7 | 0.00 | 0.00 | 0.00 | 52 | 1004.3 |
| 20260504021731 | 55 | 270 | 0.9 | 1.7 | 0.00 | 0.00 | 0.00 | 52 | 1004.3 |
| 20260504021607 | 55 | 270 | 0.9 | 1.7 | 0.00 | 0.00 | 0.00 | 50 | 1004.3 |
| 20260504021512 | 55 | 270 | 0.9 | 2.6 | 0.00 | 0.00 | 0.00 | 50 | 1004.4 |
| 20260504021416 | 55 | 270 | 0.9 | 2.6 | 0.00 | 0.00 | 0.00 | 50 | 1004.3 |
| 20260504021305 | 56 | 270 | 0.9 | 2.6 | 0.00 | 0.00 | 0.00 | 50 | 1004.3 |
| 20260504021229 | 56 | 270 | 0.9 | 2.6 | 0.00 | 0.00 | 0.00 | 50 | 1004.3 |
| 20260504021134 | 56 | 270 | 0.9 | 2.6 | 0.00 | 0.00 | 0.00 | 51 | 1004.3 |
| 20260504021035 | 56 | 270 | 0.9 | 2.6 | 0.00 | 0.00 | 0.00 | 50 | 1004.3 |
| 20260504020939 | 56 | 270 | 0.9 | 2.6 | 0.00 | 0.00 | 0.00 | 50 | 1004.3 |
| 20260504020841 | 56 | 270 | 0.9 | 2.6 | 0.00 | 0.00 | 0.00 | 51 | 1004.3 |
| 20260504020704 | 56 | 270 | 0.9 | 2.6 | 0.00 | 0.00 | 0.00 | 50 | 1004.4 |
| 20260504020608 | 56 | 270 | 0.9 | 2.6 | 0.00 | 0.00 | 0.00 | 49 | 1004.3 |
| 20260504020517 | 56 | 270 | 0.9 | 2.6 | 0.00 | 0.00 | 0.00 | 48 | 1004.3 |
| 20260504020421 | 56 | 270 | 0.9 | 2.6 | 0.00 | 0.00 | 0.00 | 49 | 1004.4 |
| 20260504020326 | 56 | 270 | 0.9 | 2.6 | 0.00 | 0.00 | 0.00 | 48 | 1004.3 |
| 20260504020228 | 57 | 270 | 0.9 | 2.6 | 0.00 | 0.00 | 0.00 | 48 | 1004.3 |
| 20260504020111 | 57 | 270 | 1.7 | 3.5 | 0.00 | 0.00 | 0.00 | 49 | 1004.3 |
| 20260504020036 | 57 | 270 | 1.7 | 3.5 | 0.00 | 0.00 | 0.00 | 48 | 1004.3 |
| 20260504015939 | 57 | 270 | 1.7 | 3.5 | 0.00 | 0.00 | 0.00 | 48 | 1004.3 |
| 20260504015807 | 57 | 270 | 1.7 | 3.5 | 0.00 | 0.00 | 0.00 | 48 | 1004.3 |
| 20260504015732 | 57 | 270 | 1.7 | 3.5 | 0.00 | 0.00 | 0.00 | 48 | 1004.3 |
| 20260504015615 | 57 | 270 | 1.7 | 3.5 | 0.00 | 0.00 | 0.00 | 47 | 1004.4 |
| 20260504015519 | 57 | 270 | 1.7 | 3.5 | 0.00 | 0.00 | 0.00 | 48 | 1004.3 |
| 20260504015424 | 58 | 270 | 1.7 | 3.5 | 0.00 | 0.00 | 0.00 | 48 | 1004.3 |
| 20260504015308 | 58 | 270 | 1.7 | 3.5 | 0.00 | 0.00 | 0.00 | 46 | 1004.3 |
| 20260504015212 | 58 | 274 | 1.7 | 2.6 | 0.00 | 0.00 | 0.00 | 46 | 1004.3 |
| 20260504015141 | 58 | 274 | 1.7 | 2.6 | 0.00 | 0.00 | 0.00 | 46 | 1004.3 |
| 20260504015023 | 58 | 274 | 1.7 | 2.6 | 0.00 | 0.00 | 0.00 | 45 | 1004.2 |
| 20260504014927 | 58 | 275 | 1.7 | 2.6 | 0.00 | 0.00 | 0.00 | 45 | 1004.3 |
| 20260504014829 | 58 | 275 | 1.7 | 2.6 | 0.00 | 0.00 | 0.00 | 44 | 1004.3 |
| 20260504014712 | 59 | 275 | 1.7 | 2.6 | 0.00 | 0.00 | 0.00 | 44 | 1004.3 |
| 20260504014617 | 59 | 276 | 1.7 | 2.6 | 0.00 | 0.00 | 0.00 | 45 | 1004.3 |
| 20260504014542 | 59 | 276 | 1.7 | 2.6 | 0.00 | 0.00 | 0.00 | 44 | 1004.3 |
| 20260504014409 | 59 | 276 | 1.7 | 2.6 | 0.00 | 0.00 | 0.00 | 44 | 1004.3 |
| 20260504014313 | 59 | 276 | 1.7 | 2.6 | 0.00 | 0.00 | 0.00 | 44 | 1004.3 |
| 20260504014216 | 59 | 276 | 1.7 | 2.6 | 0.00 | 0.00 | 0.00 | 43 | 1004.3 |
| 20260504014121 | 59 | 276 | 1.7 | 2.6 | 0.00 | 0.00 | 0.00 | 43 | 1004.3 |
| 20260504014005 | 59 | 276 | 1.7 | 2.6 | 0.00 | 0.00 | 0.00 | 43 | 1004.3 |
| 20260504013929 | 60 | 277 | 1.7 | 2.6 | 0.00 | 0.00 | 0.00 | 43 | 1004.3 |
| 20260504013832 | 60 | 277 | 1.7 | 2.6 | 0.00 | 0.00 | 0.00 | 43 | 1004.3 |
| 20260504013718 | 60 | 277 | 0.9 | 2.6 | 0.00 | 0.00 | 0.00 | 41 | 1004.2 |
| 20260504013623 | 60 | 277 | 1.7 | 2.6 | 0.00 | 0.00 | 0.00 | 42 | 1004.3 |
| 20260504013527 | 60 | 277 | 1.7 | 2.6 | 0.00 | 0.00 | 0.00 | 42 | 1004.3 |
| 20260504013410 | 60 | 277 | 1.7 | 2.6 | 0.00 | 0.00 | 0.00 | 41 | 1004.3 |
| 20260504013314 | 60 | 277 | 1.7 | 2.6 | 0.00 | 0.00 | 0.00 | 41 | 1004.3 |
| 20260504013239 | 60 | 277 | 1.7 | 2.6 | 0.00 | 0.00 | 0.00 | 41 | 1004.3 |
| 20260504013120 | 60 | 277 | 1.7 | 3.5 | 0.00 | 0.00 | 0.00 | 42 | 1004.4 |
| 20260504013009 | 60 | 277 | 1.7 | 3.5 | 0.00 | 0.00 | 0.00 | 42 | 1004.3 |
| 20260504012934 | 61 | 277 | 1.7 | 3.5 | 0.00 | 0.00 | 0.00 | 41 | 1004.3 |
| 20260504012816 | 61 | 277 | 1.7 | 3.5 | 0.00 | 0.00 | 0.00 | 43 | 1004.4 |
| 20260504012740 | 61 | 277 | 1.7 | 4.3 | 0.00 | 0.00 | 0.00 | 42 | 1004.4 |
| 20260504012624 | 61 | 277 | 1.7 | 4.3 | 0.00 | 0.00 | 0.00 | 41 | 1004.3 |
| 20260504012528 | 61 | 279 | 1.7 | 4.3 | 0.00 | 0.00 | 0.00 | 43 | 1004.3 |
| 20260504012411 | 61 | 279 | 2.6 | 4.3 | 0.00 | 0.00 | 0.00 | 42 | 1004.3 |
| 20260504012320 | 61 | 279 | 2.6 | 4.3 | 0.00 | 0.00 | 0.00 | 42 | 1004.3 |
| 20260504012244 | 61 | 281 | 2.6 | 4.3 | 0.00 | 0.00 | 0.00 | 41 | 1004.3 |
| 20260504012108 | 61 | 283 | 2.6 | 4.3 | 0.00 | 0.00 | 0.00 | 42 | 1004.4 |
| 20260504012011 | 62 | 283 | 2.6 | 4.3 | 0.00 | 0.00 | 0.00 | 42 | 1004.4 |
| 20260504011936 | 62 | 283 | 3.5 | 4.3 | 0.00 | 0.00 | 0.00 | 44 | 1004.4 |
| 20260504011819 | 62 | 271 | 2.6 | 4.3 | 0.00 | 0.00 | 0.00 | 41 | 1004.4 |
| 20260504011723 | 62 | 271 | 2.6 | 4.3 | 0.00 | 0.00 | 0.00 | 41 | 1004.4 |
| 20260504011612 | 62 | 271 | 2.6 | 6.1 | 0.00 | 0.00 | 0.00 | 42 | 1004.4 |
| 20260504011517 | 62 | 271 | 2.6 | 6.1 | 0.00 | 0.00 | 0.00 | 41 | 1004.4 |
| 20260504011440 | 62 | 270 | 2.6 | 6.1 | 0.00 | 0.00 | 0.00 | 41 | 1004.4 |
| 20260504011323 | 63 | 284 | 2.6 | 6.1 | 0.00 | 0.00 | 0.00 | 41 | 1004.4 |
| 20260504011228 | 63 | 284 | 2.6 | 6.1 | 0.00 | 0.00 | 0.00 | 41 | 1004.5 |
| 20260504011106 | 63 | 282 | 2.6 | 8.7 | 0.00 | 0.00 | 0.00 | 40 | 1004.4 |
| 20260504011015 | 63 | 282 | 2.6 | 8.7 | 0.00 | 0.00 | 0.00 | 41 | 1004.4 |
| 20260504010940 | 63 | 281 | 3.5 | 8.7 | 0.00 | 0.00 | 0.00 | 41 | 1004.5 |
| 20260504010822 | 63 | 284 | 3.5 | 8.7 | 0.00 | 0.00 | 0.00 | 39 | 1004.4 |
| 20260504010707 | 63 | 282 | 4.3 | 8.7 | 0.00 | 0.00 | 0.00 | 39 | 1004.4 |
| 20260504010630 | 64 | 283 | 4.3 | 8.7 | 0.00 | 0.00 | 0.00 | 39 | 1004.4 |
| 20260504010508 | 64 | 292 | 4.3 | 8.7 | 0.00 | 0.00 | 0.00 | 38 | 1004.4 |
| 20260504010433 | 64 | 291 | 5.2 | 8.7 | 0.00 | 0.00 | 0.00 | 37 | 1004.4 |
| 20260504010320 | 64 | 325 | 4.3 | 8.7 | 0.00 | 0.00 | 0.00 | 37 | 1004.4 |
| 20260504010243 | 64 | 270 | 2.6 | 6.1 | 0.00 | 0.00 | 0.00 | 38 | 1004.4 |
| 20260504010107 | 64 | 296 | 3.5 | 6.1 | 0.00 | 0.00 | 0.00 | 39 | 1004.4 |
| 20260504010012 | 64 | 296 | 3.5 | 6.1 | 0.00 | 0.00 | 0.00 | 36 | 1004.4 |
| 20260504005916 | 65 | 302 | 3.5 | 7.8 | 0.00 | 0.00 | 0.00 | 39 | 1004.5 |
| 20260504005820 | 65 | 282 | 3.5 | 9.6 | 0.00 | 0.00 | 0.00 | 39 | 1004.5 |
| 20260504005708 | 65 | 284 | 3.5 | 10.4 | 0.00 | 0.00 | 0.00 | 39 | 1004.4 |
| 20260504005611 | 65 | 281 | 3.5 | 10.4 | 0.00 | 0.00 | 0.00 | 36 | 1004.4 |
| 20260504005515 | 65 | 295 | 3.5 | 10.4 | 0.00 | 0.00 | 0.00 | 35 | 1004.5 |
| 20260504005419 | 65 | 306 | 3.5 | 10.4 | 0.00 | 0.00 | 0.00 | 35 | 1004.4 |
| 20260504005323 | 65 | 306 | 4.3 | 10.4 | 0.00 | 0.00 | 0.00 | 35 | 1004.5 |
| 20260504005227 | 65 | 300 | 5.2 | 10.4 | 0.00 | 0.00 | 0.00 | 34 | 1004.5 |
| 20260504005130 | 65 | 308 | 7.0 | 10.4 | 0.00 | 0.00 | 0.00 | 35 | 1004.5 |
| 20260504005016 | 65 | 295 | 7.0 | 10.4 | 0.00 | 0.00 | 0.00 | 35 | 1004.5 |
| 20260504004941 | 65 | 301 | 6.1 | 10.4 | 0.00 | 0.00 | 0.00 | 35 | 1004.5 |
| 20260504004823 | 65 | 299 | 5.2 | 10.4 | 0.00 | 0.00 | 0.00 | 35 | 1004.5 |
| 20260504004707 | 65 | 281 | 7.0 | 10.4 | 0.00 | 0.00 | 0.00 | 35 | 1004.5 |
| 20260504004611 | 65 | 284 | 7.0 | 10.4 | 0.00 | 0.00 | 0.00 | 35 | 1004.5 |
| 20260504004517 | 66 | 302 | 6.1 | 10.4 | 0.00 | 0.00 | 0.00 | 35 | 1004.5 |
| 20260504004405 | 66 | 297 | 6.1 | 10.4 | 0.00 | 0.00 | 0.00 | 36 | 1004.5 |
| 20260504004330 | 66 | 302 | 7.0 | 9.6 | 0.00 | 0.00 | 0.00 | 35 | 1004.5 |
| 20260504004213 | 66 | 302 | 7.8 | 9.6 | 0.00 | 0.00 | 0.00 | 34 | 1004.5 |
| 20260504004118 | 66 | 294 | 7.8 | 9.6 | 0.00 | 0.00 | 0.00 | 34 | 1004.5 |
| 20260504004023 | 66 | 290 | 6.1 | 9.6 | 0.00 | 0.00 | 0.00 | 35 | 1004.5 |
| 20260504003909 | 66 | 286 | 5.2 | 8.7 | 0.00 | 0.00 | 0.00 | 35 | 1004.5 |
| 20260504003834 | 66 | 302 | 5.2 | 9.6 | 0.00 | 0.00 | 0.00 | 35 | 1004.5 |
| 20260504003718 | 66 | 300 | 4.3 | 12.2 | 0.00 | 0.00 | 0.00 | 35 | 1004.5 |
| 20260504003607 | 66 | 284 | 5.2 | 12.2 | 0.00 | 0.00 | 0.00 | 35 | 1004.5 |
| 20260504003512 | 66 | 288 | 5.2 | 12.2 | 0.00 | 0.00 | 0.00 | 36 | 1004.6 |
| 20260504003418 | 66 | 300 | 5.2 | 12.2 | 0.00 | 0.00 | 0.00 | 36 | 1004.6 |
| 20260504003323 | 66 | 307 | 6.1 | 12.2 | 0.00 | 0.00 | 0.00 | 35 | 1004.6 |
| 20260504003206 | 67 | 304 | 6.1 | 12.2 | 0.00 | 0.00 | 0.00 | 33 | 1004.6 |
| 20260504003116 | 66 | 301 | 6.1 | 12.2 | 0.00 | 0.00 | 0.00 | 33 | 1004.6 |
| 20260504003021 | 66 | 324 | 7.0 | 12.2 | 0.00 | 0.00 | 0.00 | 34 | 1004.6 |
| 20260504002907 | 66 | 351 | 7.8 | 10.4 | 0.00 | 0.00 | 0.00 | 33 | 1004.6 |
| 20260504002813 | 66 | 315 | 7.0 | 9.6 | 0.00 | 0.00 | 0.00 | 34 | 1004.6 |
| 20260504002718 | 66 | 293 | 6.1 | 9.6 | 0.00 | 0.00 | 0.00 | 34 | 1004.7 |
| 20260504002622 | 66 | 286 | 5.2 | 9.6 | 0.00 | 0.00 | 0.00 | 33 | 1004.6 |
| 20260504002511 | 67 | 308 | 4.3 | 9.6 | 0.00 | 0.00 | 0.00 | 35 | 1004.6 |
| 20260504002417 | 67 | 273 | 3.5 | 9.6 | 0.00 | 0.00 | 0.00 | 36 | 1004.7 |
| 20260504002323 | 67 | 280 | 5.2 | 9.6 | 0.00 | 0.00 | 0.00 | 34 | 1004.7 |
| 20260504002207 | 67 | 291 | 5.2 | 9.6 | 0.00 | 0.00 | 0.00 | 35 | 1004.7 |
| 20260504002110 | 67 | 290 | 4.3 | 9.6 | 0.00 | 0.00 | 0.00 | 34 | 1004.6 |
| 20260504002016 | 67 | 309 | 5.2 | 9.6 | 0.00 | 0.00 | 0.00 | 36 | 1004.7 |
| 20260504001905 | 67 | 310 | 7.0 | 9.6 | 0.00 | 0.00 | 0.00 | 35 | 1004.7 |
| 20260504001811 | 67 | 279 | 7.0 | 9.6 | 0.00 | 0.00 | 0.00 | 34 | 1004.7 |
| 20260504001717 | 67 | 288 | 7.0 | 9.6 | 0.00 | 0.00 | 0.00 | 34 | 1004.7 |
| 20260504001622 | 67 | 295 | 7.0 | 9.6 | 0.00 | 0.00 | 0.00 | 33 | 1004.8 |
| 20260504001507 | 67 | 360 | 6.1 | 9.6 | 0.00 | 0.00 | 0.00 | 32 | 1004.7 |
| 20260504001433 | 67 | 314 | 5.2 | 8.7 | 0.00 | 0.00 | 0.00 | 33 | 1004.7 |
| 20260504001322 | 67 | 296 | 4.3 | 10.4 | 0.00 | 0.00 | 0.00 | 33 | 1004.7 |
| 20260504001227 | 67 | 309 | 5.2 | 10.4 | 0.00 | 0.00 | 0.00 | 36 | 1004.7 |
| 20260504001112 | 67 | 298 | 5.2 | 11.3 | 0.00 | 0.00 | 0.00 | 32 | 1004.8 |
| 20260504001038 | 67 | 309 | 5.2 | 11.3 | 0.00 | 0.00 | 0.00 | 35 | 1004.8 |
| 20260504000923 | 67 | 302 | 6.1 | 11.3 | 0.00 | 0.00 | 0.00 | 34 | 1004.8 |
| 20260504000809 | 67 | 309 | 7.8 | 11.3 | 0.00 | 0.00 | 0.00 | 33 | 1004.8 |
| 20260504000718 | 67 | 286 | 7.8 | 11.3 | 0.00 | 0.00 | 0.00 | 33 | 1004.8 |
| 20260504000604 | 67 | 316 | 7.8 | 11.3 | 0.00 | 0.00 | 0.00 | 32 | 1004.8 |
| 20260504000510 | 67 | 298 | 7.8 | 11.3 | 0.00 | 0.00 | 0.00 | 34 | 1004.8 |
| 20260504000416 | 67 | 278 | 7.8 | 11.3 | 0.00 | 0.00 | 0.00 | 35 | 1004.8 |
| 20260504000321 | 67 | 286 | 8.7 | 11.3 | 0.00 | 0.00 | 0.00 | 33 | 1004.8 |
| 20260504000207 | 67 | 290 | 7.8 | 11.3 | 0.00 | 0.00 | 0.00 | 34 | 1004.8 |
| 20260504000116 | 67 | 300 | 8.7 | 11.3 | 0.00 | 0.00 | 0.00 | 32 | 1004.7 |
| 20260504000021 | 67 | 299 | 8.7 | 11.3 | 0.00 | 0.00 | 0.00 | 33 | 1004.8 |
| 20260503235906 | 67 | 298 | 7.0 | 10.4 | 0.00 | 0.00 | 0.00 | 32 | 1004.7 |
| 20260503235831 | 67 | 294 | 5.2 | 9.6 | 0.00 | 0.00 | 0.00 | 33 | 1004.7 |
| 20260503235714 | 67 | 307 | 4.3 | 9.6 | 0.00 | 0.00 | 0.00 | 33 | 1004.8 |
| 20260503235619 | 67 | 294 | 3.5 | 9.6 | 0.00 | 0.00 | 0.00 | 35 | 1004.7 |
| 20260503235526 | 68 | 13 | 3.5 | 9.6 | 0.00 | 0.00 | 0.00 | 34 | 1004.7 |
| 20260503235410 | 68 | 300 | 5.2 | 9.6 | 0.00 | 0.00 | 0.00 | 32 | 1004.7 |
| 20260503235315 | 68 | 290 | 7.0 | 9.6 | 0.00 | 0.00 | 0.00 | 31 | 1004.7 |
| 20260503235240 | 68 | 318 | 7.0 | 10.4 | 0.00 | 0.00 | 0.00 | 31 | 1004.7 |
| 20260503235141 | 68 | 300 | 4.3 | 10.4 | 0.00 | 0.00 | 0.00 | 31 | 1004.7 |
| 20260503235005 | 68 | 304 | 2.6 | 10.4 | 0.00 | 0.00 | 0.00 | 32 | 1004.7 |
| 20260503234909 | 68 | 316 | 4.3 | 10.4 | 0.00 | 0.00 | 0.00 | 32 | 1004.7 |
| 20260503234818 | 68 | 344 | 5.2 | 10.4 | 0.00 | 0.00 | 0.00 | 32 | 1004.8 |
| 20260503234720 | 68 | 323 | 5.2 | 12.2 | 0.00 | 0.00 | 0.00 | 33 | 1004.7 |
| 20260503234604 | 68 | 279 | 5.2 | 12.2 | 0.00 | 0.00 | 0.00 | 30 | 1004.7 |
| 20260503234508 | 68 | 338 | 6.1 | 12.2 | 0.00 | 0.00 | 0.00 | 30 | 1004.7 |
| 20260503234412 | 68 | 315 | 6.1 | 12.2 | 0.00 | 0.00 | 0.00 | 30 | 1004.7 |
| 20260503234316 | 68 | 11 | 4.3 | 12.2 | 0.00 | 0.00 | 0.00 | 33 | 1004.8 |
| 20260503234204 | 69 | 355 | 5.2 | 12.2 | 0.00 | 0.00 | 0.00 | 32 | 1004.8 |
| 20260503234129 | 69 | 329 | 7.0 | 12.2 | 0.00 | 0.00 | 0.00 | 30 | 1004.8 |
| 20260503234031 | 69 | 355 | 7.8 | 12.2 | 0.00 | 0.00 | 0.00 | 30 | 1004.8 |
| 20260503233935 | 69 | 331 | 7.0 | 12.2 | 0.00 | 0.00 | 0.00 | 31 | 1004.8 |
| 20260503233818 | 69 | 314 | 6.1 | 11.3 | 0.00 | 0.00 | 0.00 | 31 | 1004.8 |
| 20260503233741 | 69 | 301 | 6.1 | 11.3 | 0.00 | 0.00 | 0.00 | 32 | 1004.7 |
| 20260503233625 | 69 | 315 | 7.8 | 11.3 | 0.00 | 0.00 | 0.00 | 32 | 1004.8 |
| 20260503233529 | 69 | 298 | 8.7 | 11.3 | 0.00 | 0.00 | 0.00 | 30 | 1004.8 |
| 20260503233412 | 69 | 311 | 8.7 | 11.3 | 0.00 | 0.00 | 0.00 | 30 | 1004.8 |
| 20260503233320 | 69 | 295 | 7.0 | 11.3 | 0.00 | 0.00 | 0.00 | 31 | 1004.8 |
| 20260503233204 | 69 | 314 | 5.2 | 10.4 | 0.00 | 0.00 | 0.00 | 31 | 1004.8 |
| 20260503233128 | 69 | 331 | 6.1 | 10.4 | 0.00 | 0.00 | 0.00 | 30 | 1004.8 |
| 20260503233031 | 69 | 351 | 7.0 | 12.2 | 0.00 | 0.00 | 0.00 | 30 | 1004.8 |
| 20260503232907 | 69 | 325 | 7.0 | 13.0 | 0.00 | 0.00 | 0.00 | 32 | 1004.8 |
| 20260503232809 | 69 | 294 | 6.1 | 13.0 | 0.00 | 0.00 | 0.00 | 30 | 1004.8 |
| 20260503232717 | 69 | 299 | 6.1 | 13.0 | 0.00 | 0.00 | 0.00 | 30 | 1004.8 |
| 20260503232622 | 69 | 334 | 7.0 | 13.0 | 0.00 | 0.00 | 0.00 | 30 | 1004.9 |
| 20260503232506 | 69 | 342 | 6.1 | 13.0 | 0.00 | 0.00 | 0.00 | 31 | 1004.8 |
| 20260503232410 | 70 | 288 | 5.2 | 13.0 | 0.00 | 0.00 | 0.00 | 30 | 1004.8 |
| 20260503232315 | 70 | 337 | 7.0 | 13.0 | 0.00 | 0.00 | 0.00 | 32 | 1004.9 |
| 20260503232218 | 70 | 306 | 8.7 | 13.0 | 0.00 | 0.00 | 0.00 | 30 | 1004.9 |
| 20260503232106 | 70 | 286 | 7.8 | 11.3 | 0.00 | 0.00 | 0.00 | 30 | 1004.9 |
| 20260503232031 | 70 | 298 | 7.0 | 10.4 | 0.00 | 0.00 | 0.00 | 29 | 1004.9 |
| 20260503231914 | 70 | 346 | 5.2 | 10.4 | 0.00 | 0.00 | 0.00 | 30 | 1004.9 |
| 20260503231818 | 70 | 316 | 6.1 | 12.2 | 0.00 | 0.00 | 0.00 | 30 | 1004.9 |
| 20260503231722 | 70 | 24 | 6.1 | 12.2 | 0.00 | 0.00 | 0.00 | 28 | 1004.9 |
| 20260503231606 | 70 | 336 | 6.1 | 12.2 | 0.00 | 0.00 | 0.00 | 30 | 1004.9 |
| 20260503231514 | 70 | 9 | 7.0 | 12.2 | 0.00 | 0.00 | 0.00 | 29 | 1004.9 |
| 20260503231419 | 70 | 347 | 7.0 | 12.2 | 0.00 | 0.00 | 0.00 | 29 | 1004.9 |
| 20260503231323 | 69 | 329 | 7.8 | 12.2 | 0.00 | 0.00 | 0.00 | 29 | 1004.8 |
| 20260503231206 | 69 | 327 | 7.8 | 13.9 | 0.00 | 0.00 | 0.00 | 28 | 1004.9 |
| 20260503231110 | 69 | 347 | 7.8 | 13.9 | 0.00 | 0.00 | 0.00 | 28 | 1004.9 |
| 20260503231015 | 69 | 309 | 8.7 | 13.9 | 0.00 | 0.00 | 0.00 | 28 | 1004.9 |
| 20260503230939 | 69 | 316 | 8.7 | 13.9 | 0.00 | 0.00 | 0.00 | 29 | 1004.9 |
| 20260503230806 | 69 | 324 | 7.8 | 13.9 | 0.00 | 0.00 | 0.00 | 30 | 1004.9 |
| 20260503230710 | 69 | 312 | 7.8 | 13.9 | 0.00 | 0.00 | 0.00 | 29 | 1004.9 |
| 20260503230613 | 69 | 327 | 7.8 | 13.9 | 0.00 | 0.00 | 0.00 | 32 | 1004.9 |
| 20260503230537 | 70 | 288 | 9.6 | 13.9 | 0.00 | 0.00 | 0.00 | 31 | 1005.0 |
| 20260503230420 | 70 | 292 | 10.4 | 13.9 | 0.00 | 0.00 | 0.00 | 28 | 1005.0 |
| 20260503230305 | 70 | 303 | 9.6 | 13.9 | 0.00 | 0.00 | 0.00 | 29 | 1004.9 |
| 20260503230212 | 70 | 300 | 8.7 | 13.0 | 0.00 | 0.00 | 0.00 | 32 | 1005.0 |
| 20260503230117 | 70 | 284 | 8.7 | 12.2 | 0.00 | 0.00 | 0.00 | 31 | 1005.0 |
| 20260503230041 | 70 | 308 | 10.4 | 12.2 | 0.00 | 0.00 | 0.00 | 29 | 1005.0 |
| 20260503225905 | 70 | 289 | 8.7 | 12.2 | 0.00 | 0.00 | 0.00 | 29 | 1005.0 |
| 20260503225809 | 70 | 310 | 7.8 | 11.3 | 0.00 | 0.00 | 0.00 | 29 | 1005.0 |
| 20260503225714 | 70 | 306 | 6.1 | 12.2 | 0.00 | 0.00 | 0.00 | 29 | 1005.0 |
| 20260503225622 | 70 | 306 | 6.1 | 12.2 | 0.00 | 0.00 | 0.00 | 30 | 1005.0 |
| 20260503225527 | 70 | 331 | 5.2 | 12.2 | 0.00 | 0.00 | 0.00 | 29 | 1005.0 |
| 20260503225410 | 70 | 294 | 5.2 | 13.0 | 0.00 | 0.00 | 0.00 | 29 | 1005.0 |
| 20260503225314 | 70 | 327 | 6.1 | 13.0 | 0.00 | 0.00 | 0.00 | 27 | 1005.2 |
| 20260503225219 | 70 | 314 | 5.2 | 13.0 | 0.00 | 0.00 | 0.00 | 28 | 1005.1 |
| 20260503225123 | 70 | 301 | 4.3 | 13.0 | 0.00 | 0.00 | 0.00 | 30 | 1005.1 |
| 20260503225012 | 70 | 350 | 6.1 | 13.0 | 0.00 | 0.00 | 0.00 | 27 | 1005.2 |
| 20260503224917 | 70 | 350 | 7.8 | 13.0 | 0.00 | 0.00 | 0.00 | 28 | 1005.3 |
| 20260503224822 | 71 | 323 | 7.0 | 13.9 | 0.00 | 0.00 | 0.00 | 29 | 1005.2 |
| 20260503224706 | 71 | 332 | 7.8 | 13.9 | 0.00 | 0.00 | 0.00 | 29 | 1005.2 |
| 20260503224630 | 71 | 316 | 7.8 | 13.9 | 0.00 | 0.00 | 0.00 | 29 | 1005.2 |
| 20260503224507 | 71 | 360 | 7.0 | 13.9 | 0.00 | 0.00 | 0.00 | 28 | 1005.1 |
| 20260503224431 | 71 | 330 | 7.8 | 13.9 | 0.00 | 0.00 | 0.00 | 28 | 1005.1 |
| 20260503224319 | 71 | 337 | 7.8 | 13.9 | 0.00 | 0.00 | 0.00 | 28 | 1005.2 |
| 20260503224222 | 71 | 348 | 7.8 | 13.9 | 0.00 | 0.00 | 0.00 | 29 | 1005.2 |
| 20260503224127 | 71 | 5 | 9.6 | 13.9 | 0.00 | 0.00 | 0.00 | 29 | 1005.1 |
| 20260503224011 | 71 | 326 | 8.7 | 13.9 | 0.00 | 0.00 | 0.00 | 32 | 1005.2 |
| 20260503223933 | 71 | 288 | 4.3 | 11.3 | 0.00 | 0.00 | 0.00 | 32 | 1005.1 |
| 20260503223836 | 71 | 254 | 4.3 | 13.0 | 0.00 | 0.00 | 0.00 | 31 | 1005.1 |
| 20260503223739 | 71 | 355 | 4.3 | 13.0 | 0.00 | 0.00 | 0.00 | 29 | 1005.2 |
| 20260503223606 | 71 | 269 | 5.2 | 13.0 | 0.00 | 0.00 | 0.00 | 29 | 1005.1 |
| 20260503223531 | 70 | 336 | 5.2 | 13.0 | 0.00 | 0.00 | 0.00 | 28 | 1005.1 |
| 20260503223414 | 70 | 321 | 6.1 | 13.0 | 0.00 | 0.00 | 0.00 | 30 | 1005.2 |
| 20260503223318 | 70 | 34 | 7.0 | 13.0 | 0.00 | 0.00 | 0.00 | 27 | 1005.2 |
| 20260503223223 | 70 | 306 | 7.8 | 13.0 | 0.00 | 0.00 | 0.00 | 27 | 1005.3 |
| 20260503223128 | 70 | 341 | 8.7 | 13.0 | 0.00 | 0.00 | 0.00 | 28 | 1005.3 |
| 20260503223005 | 70 | 15 | 9.6 | 13.0 | 0.00 | 0.00 | 0.00 | 28 | 1005.3 |
| 20260503222933 | 70 | 355 | 8.7 | 13.0 | 0.00 | 0.00 | 0.00 | 28 | 1005.3 |
| 20260503222817 | 70 | 346 | 7.0 | 13.0 | 0.00 | 0.00 | 0.00 | 29 | 1005.3 |
| 20260503222721 | 70 | 339 | 7.0 | 13.9 | 0.00 | 0.00 | 0.00 | 29 | 1005.2 |
| 20260503222626 | 70 | 17 | 7.0 | 13.9 | 0.00 | 0.00 | 0.00 | 28 | 1005.3 |
| 20260503222509 | 71 | 27 | 5.2 | 13.9 | 0.00 | 0.00 | 0.00 | 28 | 1005.2 |
| 20260503222414 | 71 | 27 | 5.2 | 13.9 | 0.00 | 0.00 | 0.00 | 29 | 1005.3 |
| 20260503222320 | 71 | 32 | 7.0 | 13.9 | 0.00 | 0.00 | 0.00 | 28 | 1005.3 |
| 20260503222209 | 71 | 315 | 8.7 | 13.9 | 0.00 | 0.00 | 0.00 | 29 | 1005.3 |
| 20260503222113 | 71 | 330 | 9.6 | 13.9 | 0.00 | 0.00 | 0.00 | 30 | 1005.4 |
| 20260503222019 | 71 | 12 | 9.6 | 13.9 | 0.00 | 0.00 | 0.00 | 29 | 1005.3 |
| 20260503221923 | 71 | 346 | 8.7 | 13.9 | 0.00 | 0.00 | 0.00 | 29 | 1005.3 |
| 20260503221827 | 71 | 314 | 7.0 | 11.3 | 0.00 | 0.00 | 0.00 | 29 | 1005.3 |
| 20260503221710 | 71 | 301 | 5.2 | 10.4 | 0.00 | 0.00 | 0.00 | 28 | 1005.2 |
| 20260503221618 | 71 | 348 | 3.5 | 10.4 | 0.00 | 0.00 | 0.00 | 30 | 1005.3 |
| 20260503221541 | 71 | 333 | 3.5 | 10.4 | 0.00 | 0.00 | 0.00 | 30 | 1005.4 |
| 20260503221422 | 71 | 328 | 3.5 | 10.4 | 0.00 | 0.00 | 0.00 | 31 | 1005.3 |
| 20260503221306 | 70 | 348 | 4.3 | 10.4 | 0.00 | 0.00 | 0.00 | 29 | 1005.3 |
| 20260503221209 | 70 | 355 | 6.1 | 10.4 | 0.00 | 0.00 | 0.00 | 29 | 1005.3 |
| 20260503221112 | 70 | 310 | 7.0 | 10.4 | 0.00 | 0.00 | 0.00 | 30 | 1005.4 |
| 20260503221015 | 70 | 331 | 6.1 | 11.3 | 0.00 | 0.00 | 0.00 | 33 | 1005.4 |
| 20260503220922 | 70 | 360 | 6.1 | 11.3 | 0.00 | 0.00 | 0.00 | 30 | 1005.3 |
| 20260503220826 | 70 | 318 | 6.1 | 12.2 | 0.00 | 0.00 | 0.00 | 29 | 1005.4 |
| 20260503220708 | 70 | 360 | 6.1 | 12.2 | 0.00 | 0.00 | 0.00 | 30 | 1005.4 |
| 20260503220612 | 70 | 15 | 4.3 | 12.2 | 0.00 | 0.00 | 0.00 | 31 | 1005.4 |
| 20260503220515 | 70 | 5 | 5.2 | 12.2 | 0.00 | 0.00 | 0.00 | 30 | 1005.4 |
| 20260503220438 | 70 | 19 | 7.0 | 12.2 | 0.00 | 0.00 | 0.00 | 28 | 1005.4 |
| 20260503220319 | 70 | 321 | 7.0 | 12.2 | 0.00 | 0.00 | 0.00 | 29 | 1005.4 |
| 20260503220206 | 70 | 18 | 7.0 | 12.2 | 0.00 | 0.00 | 0.00 | 31 | 1005.4 |
| 20260503220131 | 70 | 44 | 7.0 | 12.2 | 0.00 | 0.00 | 0.00 | 29 | 1005.5 |
| 20260503220007 | 70 | 317 | 7.8 | 12.2 | 0.00 | 0.00 | 0.00 | 29 | 1005.4 |
| 20260503215910 | 70 | 329 | 8.7 | 13.9 | 0.00 | 0.00 | 0.00 | 29 | 1005.5 |
| 20260503215812 | 70 | 333 | 7.8 | 13.9 | 0.00 | 0.00 | 0.00 | 29 | 1005.5 |
| 20260503215716 | 70 | 309 | 7.8 | 13.9 | 0.00 | 0.00 | 0.00 | 28 | 1005.4 |
| 20260503215639 | 70 | 336 | 7.0 | 13.9 | 0.00 | 0.00 | 0.00 | 28 | 1005.5 |
| 20260503215506 | 70 | 335 | 6.1 | 13.9 | 0.00 | 0.00 | 0.00 | 30 | 1005.5 |
| 20260503215408 | 70 | 309 | 7.8 | 13.9 | 0.00 | 0.00 | 0.00 | 27 | 1005.6 |
| 20260503215312 | 70 | 340 | 7.8 | 13.9 | 0.00 | 0.00 | 0.00 | 28 | 1005.5 |
| 20260503215215 | 70 | 5 | 10.4 | 13.9 | 0.00 | 0.00 | 0.00 | 27 | 1005.6 |
| 20260503215117 | 70 | 355 | 8.7 | 15.6 | 0.00 | 0.00 | 0.00 | 28 | 1005.5 |
| 20260503215020 | 70 | 344 | 7.0 | 15.6 | 0.00 | 0.00 | 0.00 | 30 | 1005.6 |
| 20260503214943 | 70 | 355 | 6.1 | 15.6 | 0.00 | 0.00 | 0.00 | 32 | 1005.6 |
| 20260503214848 | 70 | 314 | 7.0 | 15.6 | 0.00 | 0.00 | 0.00 | 29 | 1005.6 |
| 20260503214751 | 70 | 360 | 7.0 | 15.6 | 0.00 | 0.00 | 0.00 | 28 | 1005.5 |
| 20260503214607 | 70 | 360 | 9.6 | 15.6 | 0.00 | 0.00 | 0.00 | 29 | 1005.6 |
| 20260503214511 | 70 | 310 | 8.7 | 15.6 | 0.00 | 0.00 | 0.00 | 30 | 1005.6 |
| 20260503214413 | 70 | 292 | 8.7 | 15.6 | 0.00 | 0.00 | 0.00 | 29 | 1005.6 |
| 20260503214316 | 70 | 355 | 8.7 | 15.6 | 0.00 | 0.00 | 0.00 | 28 | 1005.6 |